CW2722 Weather Reports


time (UTC)temp
F
wind
direction
speed
knots
gust
knots
rain 1hr
in
rain 24hr
in
rain mn
in
humidity
%
barometer
mb
20260506044549 71 227 0.9 4.3 0.00 0.00 0.00 56 1012.3
20260506044537 71 122 0.9 2.6 0.00 0.00 0.00 57 1012.7
20260506044435 71 243 0.9 2.6 0.00 0.00 0.00 57 1012.7
20260506044342 71 136 0.9 2.6 0.00 0.00 0.00 57 1012.6
20260506044336 71 130 0.9 2.6 0.00 0.00 0.00 57 1012.7
20260506044318 71 184 0.9 2.6 0.00 0.00 0.00 57 1012.7
20260506044034 71 119 0.9 2.6 0.00 0.00 0.00 57 1012.6
20260506043935 71 92 0.9 2.6 0.00 0.00 0.00 57 1012.6
20260506043836 71 250 0.9 2.6 0.00 0.00 0.00 57 1012.5
20260506043828 71 150 0.9 4.3 0.00 0.00 0.00 57 1012.4
20260506043814 71 113 0.9 2.6 0.00 0.00 0.00 57 1012.4
20260506043640 71 227 0.9 4.3 0.00 0.00 0.00 56 1012.3
20260506043435 71 144 0.9 4.3 0.00 0.00 0.00 56 1012.3
20260506043334 71 113 0.9 4.3 0.00 0.00 0.00 56 1012.3
20260506043257 71 113 0.9 4.3 0.00 0.00 0.00 56 1012.3
20260506043248 71 114 0.9 4.3 0.00 0.00 0.00 56 1012.3
20260506043036 71 138 0.9 4.3 0.00 0.00 0.00 56 1012.3
20260506043031 71 139 0.9 4.3 0.00 0.00 0.00 56 1012.3
20260506042931 71 137 0.9 4.3 0.00 0.00 0.00 56 1012.4
20260506042856 71 102 0.9 4.3 0.00 0.00 0.00 56 1012.4
20260506042847 71 215 0.9 4.3 0.00 0.00 0.00 56 1012.4
20260506042630 71 115 0.9 3.5 0.00 0.00 0.00 56 1012.4
20260506042531 71 85 0.9 3.5 0.00 0.00 0.00 56 1012.5
20260506042431 71 152 0.9 2.6 0.00 0.00 0.00 56 1012.5
20260506042331 71 113 0.9 2.6 0.00 0.00 0.00 56 1012.5
20260506042230 71 124 0.9 2.6 0.00 0.00 0.00 56 1012.5
20260506042130 71 195 0.9 2.6 0.00 0.00 0.00 56 1012.6
20260506042031 71 138 0.9 2.6 0.00 0.00 0.00 56 1012.6
20260506041954 71 207 0.9 3.5 0.00 0.00 0.00 56 1012.7
20260506041946 71 137 0.9 3.5 0.00 0.00 0.00 56 1012.7
20260506041729 71 227 0.9 3.5 0.00 0.00 0.00 55 1012.8
20260506041626 71 128 0.9 3.5 0.00 0.00 0.00 55 1012.8
20260506041533 71 107 0.0 3.5 0.00 0.00 0.00 55 1012.8
20260506041528 71 122 0.0 3.5 0.00 0.00 0.00 55 1012.8
20260506041426 71 127 0.0 3.5 0.00 0.00 0.00 55 1012.8
20260506041324 71 199 0.0 3.5 0.00 0.00 0.00 55 1012.8
20260506041304 71 195 0.0 3.5 0.00 0.00 0.00 55 1012.8
20260506041253 71 194 0.0 3.5 0.00 0.00 0.00 55 1012.8
20260506041033 71 182 0.0 3.5 0.00 0.00 0.00 55 1012.8
20260506041024 71 109 0.0 3.5 0.00 0.00 0.00 55 1012.8
20260506040925 71 178 0.0 1.7 0.00 0.00 0.00 55 1012.8
20260506040852 71 140 0.0 4.3 0.00 0.00 0.00 55 1012.8
20260506040843 71 186 0.0 4.3 0.00 0.00 0.00 55 1012.8
20260506040624 71 209 0.0 4.3 0.00 0.00 0.00 55 1012.8
20260506040557 71 132 0.9 4.3 0.00 0.00 0.00 54 1012.7
20260506040546 71 89 0.9 4.3 0.00 0.00 0.00 55 1012.7
20260506040540 71 188 0.9 4.3 0.00 0.00 0.00 55 1012.7
20260506040322 71 129 0.9 4.3 0.00 0.00 0.00 54 1012.7
20260506040225 71 119 0.9 4.3 0.00 0.00 0.00 54 1012.8
20260506040122 71 144 0.9 4.3 0.00 0.00 0.00 54 1012.9
20260506040030 71 148 0.9 4.3 0.00 0.00 0.00 54 1012.9
20260506040024 71 149 0.9 4.3 0.00 0.00 0.00 54 1012.9
20260506035920 71 168 0.9 4.3 0.00 0.00 0.00 54 1012.9
20260506035821 71 168 0.9 2.6 0.00 0.00 0.00 54 1012.9
20260506035718 71 205 0.9 2.6 0.00 0.00 0.00 54 1012.9
20260506035618 71 200 0.0 2.6 0.00 0.00 0.00 54 1012.9
20260506035530 71 205 0.0 2.6 0.00 0.00 0.00 54 1012.9
20260506035519 71 165 0.0 2.6 0.00 0.00 0.00 54 1012.9
20260506035417 71 117 0.0 1.7 0.00 0.00 0.00 54 1012.9
20260506035316 71 144 0.0 1.7 0.00 0.00 0.00 54 1012.8
20260506035214 71 186 0.0 1.7 0.00 0.00 0.00 54 1012.8
20260506035125 71 155 0.0 5.2 0.00 0.00 0.00 54 1012.8
20260506035121 71 209 0.9 5.2 0.00 0.00 0.00 54 1012.7
20260506035114 71 168 0.0 1.7 0.00 0.00 0.00 54 1012.8
20260506035107 71 160 0.0 5.2 0.00 0.00 0.00 54 1012.6
20260506035056 71 182 0.0 1.7 0.00 0.00 0.00 54 1012.8
20260506035048 71 201 0.9 1.7 0.00 0.00 0.00 54 1012.8
20260506034714 71 234 0.0 5.2 0.00 0.00 0.00 54 1012.6
20260506034655 71 221 0.9 5.2 0.00 0.00 0.00 53 1012.7
20260506034644 71 198 0.0 5.2 0.00 0.00 0.00 54 1012.6
20260506034515 71 199 0.0 5.2 0.00 0.00 0.00 54 1012.6
20260506034413 71 122 0.0 5.2 0.00 0.00 0.00 54 1012.6
20260506034312 71 169 0.9 5.2 0.00 0.00 0.00 53 1012.6
20260506034210 71 171 0.9 5.2 0.00 0.00 0.00 54 1012.6
20260506034144 71 169 0.9 5.2 0.00 0.00 0.00 53 1012.7
20260506034011 71 159 0.0 5.2 0.00 0.00 0.00 53 1012.7
20260506033910 71 140 0.0 2.6 0.00 0.00 0.00 53 1012.7
20260506033808 71 136 0.0 2.6 0.00 0.00 0.00 53 1012.8
20260506033706 71 200 0.0 1.7 0.00 0.00 0.00 53 1012.8
20260506033605 71 164 0.0 1.7 0.00 0.00 0.00 53 1012.8
20260506033536 71 137 0.0 1.7 0.00 0.00 0.00 53 1012.6
20260506033505 71 159 0.0 1.7 0.00 0.00 0.00 53 1012.8
20260506033429 71 92 0.0 1.7 0.00 0.00 0.00 53 1012.7
20260506033420 71 135 0.0 1.7 0.00 0.00 0.00 54 1012.7
20260506033204 71 137 0.0 1.7 0.00 0.00 0.00 53 1012.6
20260506033142 71 138 0.0 1.7 0.00 0.00 0.00 53 1012.6
20260506033005 71 120 0.0 1.7 0.00 0.00 0.00 53 1012.6
20260506032904 71 146 0.0 2.6 0.00 0.00 0.00 53 1012.6
20260506032802 71 99 0.0 2.6 0.00 0.00 0.00 54 1012.6
20260506032703 71 163 0.0 2.6 0.00 0.00 0.00 54 1012.6
20260506032602 71 222 0.0 2.6 0.00 0.00 0.00 54 1012.7
20260506032533 71 227 0.0 2.6 0.00 0.00 0.00 54 1012.7
20260506032527 71 223 0.0 2.6 0.00 0.00 0.00 54 1012.7
20260506032519 71 223 0.0 2.6 0.00 0.00 0.00 54 1012.7
20260506032305 71 206 0.0 2.6 0.00 0.00 0.00 54 1012.8
20260506032202 71 229 0.0 2.6 0.00 0.00 0.00 53 1012.7
20260506032133 71 223 0.0 2.6 0.00 0.00 0.00 53 1012.8
20260506032122 71 234 0.0 2.6 0.00 0.00 0.00 54 1012.8
20260506032109 71 223 0.0 2.6 0.00 0.00 0.00 54 1012.8
20260506031900 71 153 0.0 1.7 0.00 0.00 0.00 53 1012.7
20260506031800 71 178 0.0 1.7 0.00 0.00 0.00 53 1012.8
20260506031702 71 195 0.0 1.7 0.00 0.00 0.00 53 1012.8
20260506031601 71 122 0.0 1.7 0.00 0.00 0.00 53 1012.7
20260506031526 71 119 0.0 1.7 0.00 0.00 0.00 53 1012.7
20260506031501 71 122 0.0 1.7 0.00 0.00 0.00 53 1012.8
20260506031401 71 241 0.0 1.7 0.00 0.00 0.00 53 1012.9
20260506031300 71 186 0.0 1.7 0.00 0.00 0.00 53 1012.9
20260506031201 71 203 0.0 1.7 0.00 0.00 0.00 53 1012.9
20260506031100 71 205 0.0 1.7 0.00 0.00 0.00 53 1012.9
20260506031026 71 201 0.0 1.7 0.00 0.00 0.00 53 1012.9
20260506031000 71 133 0.0 1.7 0.00 0.00 0.00 53 1012.9
20260506030900 71 163 0.0 0.9 0.00 0.00 0.00 53 1012.9
20260506030801 71 129 0.0 4.3 0.00 0.00 0.00 53 1012.9
20260506030701 71 214 0.0 4.3 0.00 0.00 0.00 53 1013.0
20260506030600 71 214 0.9 4.3 0.00 0.00 0.00 53 1013.0
20260506030527 71 205 0.9 4.3 0.00 0.00 0.00 53 1013.0
20260506030501 71 205 0.9 4.3 0.00 0.00 0.00 53 1013.0
20260506030400 71 202 0.9 4.3 0.00 0.00 0.00 53 1013.0
20260506030300 71 202 0.9 4.3 0.00 0.00 0.00 53 1013.0
20260506030201 71 210 0.9 4.3 0.00 0.00 0.00 53 1013.0
20260506030138 71 159 0.9 4.3 0.00 0.00 0.00 53 1013.0
20260506030132 71 149 0.9 3.5 0.00 0.00 0.00 53 1012.9
20260506030123 71 150 0.9 4.3 0.00 0.00 0.00 53 1012.9
20260506030109 71 132 0.9 4.3 0.00 0.00 0.00 53 1012.9
20260506025900 71 159 0.9 4.3 0.00 0.00 0.00 52 1013.0
20260506025803 71 180 0.9 3.5 0.00 0.00 0.00 53 1013.0
20260506025756 71 201 0.9 3.5 0.00 0.00 0.00 53 1012.9
20260506025740 71 134 0.9 3.5 0.00 0.00 0.00 53 1012.9
20260506025723 71 177 0.9 3.5 0.00 0.00 0.00 53 1012.9
20260506025425 71 250 0.9 3.5 0.00 0.00 0.00 53 1013.0
20260506025416 71 223 0.9 3.5 0.00 0.00 0.00 53 1012.9
20260506025203 71 226 0.0 3.5 0.00 0.00 0.00 52 1012.9
20260506025157 71 190 0.9 2.6 0.00 0.00 0.00 53 1013.0
20260506025152 71 237 0.0 2.6 0.00 0.00 0.00 53 1012.9
20260506025146 71 150 0.9 2.6 0.00 0.00 0.00 53 1012.9
20260506025141 71 208 0.0 2.6 0.00 0.00 0.00 53 1012.9
20260506025128 71 134 0.0 2.6 0.00 0.00 0.00 53 1013.0
20260506025115 71 196 0.0 2.6 0.00 0.00 0.00 53 1013.0
20260506024950 71 144 0.9 2.6 0.00 0.00 0.00 53 1013.0
20260506024526 71 217 0.0 2.6 0.00 0.00 0.00 53 1012.9
20260506024500 71 164 0.9 2.6 0.00 0.00 0.00 53 1012.9
20260506024424 71 206 0.9 3.5 0.00 0.00 0.00 54 1012.8
20260506024417 71 145 0.9 3.5 0.00 0.00 0.00 53 1012.9
20260506024226 71 221 0.0 3.5 0.00 0.00 0.00 53 1012.8
20260506024216 71 160 0.9 3.5 0.00 0.00 0.00 53 1012.8
20260506024026 71 221 0.0 3.5 0.00 0.00 0.00 53 1012.8
20260506024000 72 207 0.0 3.5 0.00 0.00 0.00 53 1012.8
20260506023900 72 128 0.0 3.5 0.00 0.00 0.00 53 1012.7
20260506023800 72 191 0.0 3.5 0.00 0.00 0.00 53 1012.8
20260506023728 72 150 0.0 3.5 0.00 0.00 0.00 53 1012.8
20260506023717 72 213 0.0 3.5 0.00 0.00 0.00 53 1012.8
20260506023533 72 219 0.0 2.6 0.00 0.00 0.00 52 1012.8
20260506023527 72 167 0.0 3.5 0.00 0.00 0.00 53 1012.8
20260506023518 72 206 0.0 3.5 0.00 0.00 0.00 53 1012.8
20260506023301 72 225 0.0 2.6 0.00 0.00 0.00 53 1012.8
20260506023201 72 157 0.0 2.6 0.00 0.00 0.00 53 1012.8
20260506023133 72 136 0.0 2.6 0.00 0.00 0.00 53 1012.8
20260506023122 72 213 0.0 2.6 0.00 0.00 0.00 53 1012.8
20260506023109 72 214 0.0 2.6 0.00 0.00 0.00 53 1012.8
20260506022900 72 145 0.0 2.6 0.00 0.00 0.00 53 1012.9
20260506022807 72 150 0.0 0.9 0.00 0.00 0.00 53 1012.9
20260506022800 72 184 0.0 2.6 0.00 0.00 0.00 53 1012.9
20260506022752 72 150 0.0 0.9 0.00 0.00 0.00 53 1012.9
20260506022738 72 153 0.0 2.6 0.00 0.00 0.00 53 1012.9
20260506022608 72 150 0.0 0.9 0.00 0.00 0.00 53 1012.9
20260506022400 72 127 0.0 0.9 0.00 0.00 0.00 53 1012.9
20260506022300 72 127 0.0 0.9 0.00 0.00 0.00 53 1012.9
20260506022202 72 126 0.0 0.9 0.00 0.00 0.00 53 1012.9
20260506022137 72 190 0.0 0.9 0.00 0.00 0.00 53 1012.9
20260506022130 72 293 0.0 0.9 0.00 0.00 0.00 53 1012.8
20260506022108 72 190 0.0 0.9 0.00 0.00 0.00 53 1012.9
20260506021900 72 190 0.0 0.9 0.00 0.00 0.00 53 1012.9
20260506021800 72 240 0.0 0.9 0.00 0.00 0.00 53 1012.8
20260506021700 72 240 0.0 0.9 0.00 0.00 0.00 53 1012.8
20260506021642 72 281 0.0 0.9 0.00 0.00 0.00 52 1012.8
20260506021525 72 296 0.0 0.9 0.00 0.00 0.00 52 1012.8
20260506021516 72 294 0.0 0.9 0.00 0.00 0.00 53 1012.8
20260506021300 72 161 0.0 3.5 0.00 0.00 0.00 52 1012.8
20260506021201 72 164 0.0 3.5 0.00 0.00 0.00 52 1012.8
20260506021100 72 167 0.0 3.5 0.00 0.00 0.00 52 1012.8
20260506021026 72 163 0.0 3.5 0.00 0.00 0.00 52 1012.8
20260506021005 72 178 0.9 3.5 0.00 0.00 0.00 52 1012.6
20260506021000 72 158 0.0 3.5 0.00 0.00 0.00 52 1012.8
20260506020951 72 257 0.0 3.5 0.00 0.00 0.00 52 1012.7
20260506020945 72 175 0.0 3.5 0.00 0.00 0.00 52 1012.6
20260506020934 72 201 0.0 3.5 0.00 0.00 0.00 52 1012.8
20260506020918 72 165 0.0 3.5 0.00 0.00 0.00 52 1012.7
20260506020640 72 155 0.9 3.5 0.00 0.00 0.00 52 1012.7
20260506020627 72 175 0.9 3.5 0.00 0.00 0.00 52 1012.7
20260506020301 72 159 0.0 2.6 0.00 0.00 0.00 52 1012.6
20260506020200 72 115 0.0 2.6 0.00 0.00 0.00 52 1012.5
20260506020024 72 121 0.9 2.6 0.00 0.00 0.00 51 1012.5
20260506020000 72 118 0.9 2.6 0.00 0.00 0.00 51 1012.5
20260506015901 72 205 0.0 2.6 0.00 0.00 0.00 51 1012.5
20260506015759 72 218 0.0 2.6 0.00 0.00 0.00 51 1012.5
20260506015700 72 256 0.9 2.6 0.00 0.00 0.00 51 1012.5
20260506015634 72 121 0.0 2.6 0.00 0.00 0.00 51 1012.4
20260506015622 72 144 0.0 2.6 0.00 0.00 0.00 51 1012.5
20260506015609 72 118 0.0 2.6 0.00 0.00 0.00 51 1012.5
20260506015400 72 110 0.0 2.6 0.00 0.00 0.00 51 1012.4
20260506015300 72 121 0.0 2.6 0.00 0.00 0.00 51 1012.4
20260506015226 72 117 0.0 2.6 0.00 0.00 0.00 51 1012.4
20260506015217 72 119 0.0 2.6 0.00 0.00 0.00 51 1012.4
20260506015034 72 176 0.0 2.6 0.00 0.00 0.00 51 1012.4
20260506015027 72 111 0.0 2.6 0.00 0.00 0.00 51 1012.4
20260506015018 72 114 0.0 2.6 0.00 0.00 0.00 51 1012.4
20260506014800 72 199 0.0 2.6 0.00 0.00 0.00 51 1012.5
20260506014700 72 163 0.0 2.6 0.00 0.00 0.00 51 1012.5
20260506014600 72 240 0.0 2.6 0.00 0.00 0.00 51 1012.5
20260506014524 72 240 0.0 2.6 0.00 0.00 0.00 51 1012.5
20260506014500 72 133 0.0 2.6 0.00 0.00 0.00 51 1012.5
20260506014359 72 249 0.0 2.6 0.00 0.00 0.00 51 1012.5
20260506014259 72 141 0.0 2.6 0.00 0.00 0.00 51 1012.5
20260506014158 72 152 0.0 2.6 0.00 0.00 0.00 51 1012.5
20260506014102 72 237 0.0 1.7 0.00 0.00 0.00 52 1012.5
20260506014057 72 233 0.0 2.6 0.00 0.00 0.00 52 1012.5
20260506014049 72 146 0.0 1.7 0.00 0.00 0.00 52 1012.6
20260506014038 72 108 0.0 1.7 0.00 0.00 0.00 52 1012.5
20260506014028 72 223 0.0 1.7 0.00 0.00 0.00 52 1012.5
20260506013655 72 222 0.0 1.7 0.00 0.00 0.00 52 1012.5
20260506013554 72 217 0.0 1.7 0.00 0.00 0.00 52 1012.5
20260506013530 72 136 0.0 1.7 0.00 0.00 0.00 52 1012.7
20260506013525 72 126 0.0 1.7 0.00 0.00 0.00 52 1012.5
20260506013451 72 129 0.0 1.7 0.00 0.00 0.00 52 1012.6
20260506013352 72 164 0.0 1.7 0.00 0.00 0.00 52 1012.7
20260506013319 72 136 0.0 1.7 0.00 0.00 0.00 52 1012.7
20260506013310 72 207 0.0 1.7 0.00 0.00 0.00 52 1012.7
20260506013136 72 136 0.0 1.7 0.00 0.00 0.00 52 1012.7
20260506012952 72 136 0.0 1.7 0.00 0.00 0.00 52 1012.7
20260506012851 72 136 0.0 1.7 0.00 0.00 0.00 52 1012.7
20260506012751 72 136 0.0 1.7 0.00 0.00 0.00 52 1012.7
20260506012716 72 215 0.9 1.7 0.00 0.00 0.00 52 1012.7
20260506012712 72 195 0.9 2.6 0.00 0.00 0.00 51 1012.7
20260506012707 72 148 0.9 2.6 0.00 0.00 0.00 51 1012.7
20260506012658 72 150 0.0 1.7 0.00 0.00 0.00 52 1012.7
20260506012631 72 226 0.0 1.7 0.00 0.00 0.00 52 1012.7
20260506012147 72 156 0.0 2.6 0.00 0.00 0.00 51 1012.7
20260506012045 72 209 0.0 2.6 0.00 0.00 0.00 51 1012.6
20260506012024 72 210 0.0 2.6 0.00 0.00 0.00 51 1012.6
20260506011942 72 205 0.0 2.6 0.00 0.00 0.00 51 1012.6
20260506011907 72 128 0.0 2.6 0.00 0.00 0.00 51 1012.6
20260506011859 72 128 0.0 2.6 0.00 0.00 0.00 52 1012.6
20260506011706 72 201 0.0 2.6 0.00 0.00 0.00 51 1012.6
20260506011658 72 128 0.0 2.6 0.00 0.00 0.00 52 1012.6
20260506011525 72 234 0.0 2.6 0.00 0.00 0.00 51 1012.6
20260506011442 72 165 0.0 2.6 0.00 0.00 0.00 51 1012.6
20260506011342 72 211 0.0 1.7 0.00 0.00 0.00 52 1012.6
20260506011308 72 221 0.0 1.7 0.00 0.00 0.00 51 1012.4
20260506011259 72 211 0.0 1.7 0.00 0.00 0.00 51 1012.5
20260506011041 72 210 0.0 1.7 0.00 0.00 0.00 51 1012.5
20260506011023 72 210 0.0 1.7 0.00 0.00 0.00 52 1012.5
20260506010940 72 167 0.0 1.7 0.00 0.00 0.00 51 1012.5
20260506010838 72 135 0.0 1.7 0.00 0.00 0.00 52 1012.4
20260506010744 72 260 0.0 2.6 0.00 0.00 0.00 51 1012.3
20260506010737 72 199 0.0 1.7 0.00 0.00 0.00 52 1012.4
20260506010720 72 199 0.0 2.6 0.00 0.00 0.00 51 1012.3
20260506010604 72 169 0.0 2.6 0.00 0.00 0.00 51 1012.3
20260506010558 72 191 0.0 2.6 0.00 0.00 0.00 51 1012.2
20260506010550 72 200 0.0 2.6 0.00 0.00 0.00 51 1012.3
20260506010539 72 199 0.0 2.6 0.00 0.00 0.00 51 1012.3
20260506010528 72 134 0.0 2.6 0.00 0.00 0.00 51 1012.3
20260506010022 72 178 0.0 2.6 0.00 0.00 0.00 52 1012.2
20260506005932 72 209 0.9 2.6 0.00 0.00 0.00 51 1012.2
20260506005831 72 233 0.0 2.6 0.00 0.00 0.00 51 1012.1
20260506005729 72 158 0.0 2.6 0.00 0.00 0.00 51 1012.1
20260506005630 72 191 0.0 1.7 0.00 0.00 0.00 52 1012.1
20260506005530 72 134 0.0 1.7 0.00 0.00 0.00 51 1012.2
20260506005521 72 135 0.0 1.7 0.00 0.00 0.00 51 1012.1
20260506005428 72 165 0.0 1.7 0.00 0.00 0.00 51 1012.1
20260506005328 72 205 0.0 1.7 0.00 0.00 0.00 51 1012.2
20260506005228 72 209 0.0 1.7 0.00 0.00 0.00 51 1012.3
20260506005128 72 233 0.0 1.7 0.00 0.00 0.00 51 1012.2
20260506005035 72 141 0.0 2.6 0.00 0.00 0.00 51 1012.2
20260506005030 72 111 0.0 1.7 0.00 0.00 0.00 51 1012.2
20260506005021 72 110 0.0 1.7 0.00 0.00 0.00 51 1012.2
20260506004927 72 207 0.0 1.7 0.00 0.00 0.00 51 1012.2
20260506004826 72 203 0.0 2.6 0.00 0.00 0.00 51 1012.2
20260506004727 72 213 0.0 2.6 0.00 0.00 0.00 51 1012.2
20260506004655 72 153 0.0 2.6 0.00 0.00 0.00 51 1012.3
20260506004646 72 177 0.0 2.6 0.00 0.00 0.00 51 1012.2
20260506004629 72 141 0.0 2.6 0.00 0.00 0.00 51 1012.2
20260506004452 72 167 0.0 2.6 0.00 0.00 0.00 51 1012.2
20260506004443 72 156 0.0 2.6 0.00 0.00 0.00 51 1012.2
20260506004319 72 153 0.0 2.6 0.00 0.00 0.00 51 1012.3
20260506004305 72 161 0.0 2.6 0.00 0.00 0.00 51 1012.2
20260506004246 72 189 0.0 2.6 0.00 0.00 0.00 51 1012.3
20260506004004 72 146 0.0 2.6 0.00 0.00 0.00 51 1012.2
20260506003952 72 253 0.0 2.6 0.00 0.00 0.00 51 1012.3
20260506003723 72 146 0.0 2.6 0.00 0.00 0.00 50 1012.2
20260506003621 72 167 0.0 2.6 0.00 0.00 0.00 51 1012.2
20260506003519 72 207 0.0 2.6 0.00 0.00 0.00 50 1012.2
20260506003445 72 209 0.0 2.6 0.00 0.00 0.00 50 1012.2
20260506003436 72 153 0.0 2.6 0.00 0.00 0.00 51 1012.2
20260506003220 72 198 0.0 2.6 0.00 0.00 0.00 50 1012.2
20260506003118 72 191 0.0 2.6 0.00 0.00 0.00 51 1012.2
20260506003019 72 153 0.0 2.6 0.00 0.00 0.00 50 1012.2
20260506002917 72 156 0.0 2.6 0.00 0.00 0.00 51 1012.2
20260506002818 72 113 0.0 1.7 0.00 0.00 0.00 50 1012.3
20260506002721 72 202 0.0 1.7 0.00 0.00 0.00 50 1012.2
20260506002618 72 215 0.0 1.7 0.00 0.00 0.00 50 1012.2
20260506002518 72 207 0.0 1.7 0.00 0.00 0.00 51 1012.2
20260506002443 72 149 0.0 1.7 0.00 0.00 0.00 50 1012.2
20260506002434 72 273 0.0 1.7 0.00 0.00 0.00 50 1012.2
20260506002219 72 216 0.0 1.7 0.00 0.00 0.00 50 1012.1
20260506002115 72 136 0.0 1.7 0.00 0.00 0.00 50 1012.1
20260506002049 72 215 0.0 1.7 0.00 0.00 0.00 50 1012.2
20260506002038 72 151 0.0 1.7 0.00 0.00 0.00 50 1012.1
20260506002032 72 150 0.0 1.7 0.00 0.00 0.00 50 1012.1
20260506001813 72 205 0.0 1.7 0.00 0.00 0.00 50 1012.2
20260506001740 72 265 0.0 2.6 0.00 0.00 0.00 50 1012.3
20260506001729 72 215 0.0 2.6 0.00 0.00 0.00 50 1012.2
20260506001520 72 199 0.0 2.6 0.00 0.00 0.00 50 1012.3
20260506001511 72 184 0.0 2.6 0.00 0.00 0.00 50 1012.3
20260506001411 72 214 0.0 2.6 0.00 0.00 0.00 50 1012.3
20260506001311 73 209 0.0 2.6 0.00 0.00 0.00 49 1012.3
20260506001212 73 244 0.0 2.6 0.00 0.00 0.00 49 1012.3
20260506001111 73 145 0.0 2.6 0.00 0.00 0.00 49 1012.4
20260506001020 73 232 0.0 2.6 0.00 0.00 0.00 49 1012.4
20260506001013 73 169 0.0 2.6 0.00 0.00 0.00 49 1012.4
20260506000938 73 214 0.0 2.6 0.00 0.00 0.00 49 1012.5
20260506000929 73 169 0.0 2.6 0.00 0.00 0.00 49 1012.4
20260506000712 73 135 0.0 2.6 0.00 0.00 0.00 49 1012.5
20260506000612 73 215 0.0 2.6 0.00 0.00 0.00 49 1012.5
20260506000511 73 194 0.0 2.6 0.00 0.00 0.00 49 1012.5
20260506000411 73 193 0.0 2.6 0.00 0.00 0.00 49 1012.5
20260506000313 73 141 0.0 2.6 0.00 0.00 0.00 48 1012.5
20260506000212 73 192 0.0 2.6 0.00 0.00 0.00 49 1012.5
20260506000147 73 151 0.0 1.7 0.00 0.00 0.00 50 1012.5
20260506000141 73 163 0.0 0.9 0.00 0.00 0.00 50 1012.5
20260506000137 73 145 0.0 0.9 0.00 0.00 0.00 50 1012.5
20260506000131 73 187 0.0 0.9 0.00 0.00 0.00 50 1012.6
20260506000123 73 175 0.0 2.6 0.00 0.00 0.00 49 1012.5
20260506000107 73 205 0.0 2.6 0.00 0.00 0.00 49 1012.5
20260506000101 73 144 0.0 2.6 0.00 0.00 0.00 49 1012.5
20260505235635 73 187 0.0 0.9 0.00 0.00 0.00 50 1012.5
20260505235509 73 187 0.0 0.9 0.00 0.00 0.00 50 1012.6
20260505235410 73 187 0.0 0.9 0.00 0.00 0.00 50 1012.5
20260505235310 73 187 0.0 0.9 0.00 0.00 0.00 50 1012.5
20260505235208 73 187 0.0 0.9 0.00 0.00 0.00 51 1012.6
20260505235105 74 186 0.0 0.9 0.00 0.00 0.00 50 1012.6
20260505235019 74 186 0.0 0.9 0.00 0.00 0.00 50 1012.6
20260505235005 74 187 0.0 0.9 0.00 0.00 0.00 50 1012.6
20260505234905 74 187 0.0 0.9 0.00 0.00 0.00 50 1012.6
20260505234805 74 184 0.0 0.9 0.00 0.00 0.00 50 1012.6
20260505234707 74 184 0.0 0.9 0.00 0.00 0.00 50 1012.6
20260505234607 74 184 0.0 0.9 0.00 0.00 0.00 50 1012.6
20260505234520 74 184 0.0 0.9 0.00 0.00 0.00 50 1012.6
20260505234506 74 185 0.0 0.9 0.00 0.00 0.00 50 1012.6
20260505234407 74 185 0.0 0.9 0.00 0.00 0.00 51 1012.5
20260505234304 74 185 0.0 0.9 0.00 0.00 0.00 50 1012.5
20260505234203 74 156 0.0 2.6 0.00 0.00 0.00 51 1012.5
20260505234105 74 149 0.0 3.5 0.00 0.00 0.00 51 1012.6
20260505234017 74 138 0.0 3.5 0.00 0.00 0.00 51 1012.6
20260505234001 74 138 0.0 3.5 0.00 0.00 0.00 51 1012.6
20260505233859 74 139 0.0 3.5 0.00 0.00 0.00 50 1012.6
20260505233800 74 144 0.0 3.5 0.00 0.00 0.00 51 1012.6
20260505233701 74 214 0.0 3.5 0.00 0.00 0.00 51 1012.6
20260505233558 74 136 0.0 3.5 0.00 0.00 0.00 52 1012.7
20260505233519 74 209 0.0 3.5 0.00 0.00 0.00 52 1012.7
20260505233459 74 211 0.0 3.5 0.00 0.00 0.00 52 1012.7
20260505233359 74 211 0.0 3.5 0.00 0.00 0.00 51 1012.7
20260505233322 74 156 0.0 2.6 0.00 0.00 0.00 51 1012.7
20260505233313 74 164 0.0 3.5 0.00 0.00 0.00 51 1012.8
20260505233056 74 219 0.0 1.7 0.00 0.00 0.00 51 1012.7
20260505233017 74 219 0.0 1.7 0.00 0.00 0.00 52 1012.7
20260505232954 74 219 0.0 1.7 0.00 0.00 0.00 52 1012.7
20260505232853 74 219 0.0 1.7 0.00 0.00 0.00 51 1012.7
20260505232751 75 158 0.0 0.9 0.00 0.00 0.00 52 1012.7
20260505232652 75 159 0.0 0.9 0.00 0.00 0.00 51 1012.7
20260505232558 75 148 0.0 0.9 0.00 0.00 0.00 50 1012.7
20260505232553 75 159 0.0 0.9 0.00 0.00 0.00 51 1012.7
20260505232517 75 159 0.0 0.9 0.00 0.00 0.00 51 1012.7
20260505232450 75 159 0.0 0.9 0.00 0.00 0.00 51 1012.7
20260505232408 75 148 0.0 0.9 0.00 0.00 0.00 50 1012.7
20260505232404 75 145 0.0 1.7 0.00 0.00 0.00 50 1012.7
20260505232357 75 148 0.0 0.9 0.00 0.00 0.00 51 1012.7
20260505232341 75 148 0.0 0.9 0.00 0.00 0.00 50 1012.8
20260505232207 75 148 0.0 0.9 0.00 0.00 0.00 49 1012.8
20260505231846 75 204 0.0 1.7 0.00 0.00 0.00 50 1012.7
20260505231743 75 205 0.0 1.7 0.00 0.00 0.00 50 1012.7
20260505231645 75 205 0.0 1.7 0.00 0.00 0.00 49 1012.7
20260505231544 75 205 0.0 1.7 0.00 0.00 0.00 50 1012.7
20260505231518 75 205 0.0 1.7 0.00 0.00 0.00 50 1012.6
20260505231443 76 205 0.0 1.7 0.00 0.00 0.00 49 1012.6
20260505231342 76 205 0.0 1.7 0.00 0.00 0.00 48 1012.7
20260505231241 76 205 0.9 2.6 0.00 0.00 0.00 48 1012.6
20260505231139 76 205 0.9 3.5 0.00 0.00 0.00 48 1012.6
20260505231017 76 206 0.9 3.5 0.00 0.00 0.00 47 1012.6
20260505230939 76 192 0.9 3.5 0.00 0.00 0.00 47 1012.6
20260505230903 76 160 0.9 3.5 0.00 0.00 0.00 47 1012.6
20260505230855 76 122 0.9 3.5 0.00 0.00 0.00 47 1012.6
20260505230636 76 203 0.9 3.5 0.00 0.00 0.00 47 1012.6
20260505230605 76 205 0.9 3.5 0.00 0.00 0.00 46 1012.7
20260505230545 76 203 0.9 3.5 0.00 0.00 0.00 47 1012.7
20260505230358 76 108 0.0 3.5 0.00 0.00 0.00 45 1012.6
20260505230349 76 202 0.0 3.5 0.00 0.00 0.00 45 1012.6
20260505230131 76 145 0.0 2.6 0.00 0.00 0.00 46 1012.6
20260505230032 76 192 0.0 2.6 0.00 0.00 0.00 45 1012.6
20260505230019 76 192 0.0 2.6 0.00 0.00 0.00 45 1012.5
20260505225931 76 196 0.0 2.6 0.00 0.00 0.00 45 1012.5
20260505225831 76 156 0.0 1.7 0.00 0.00 0.00 46 1012.6
20260505225729 76 215 0.0 1.7 0.00 0.00 0.00 45 1012.5
20260505225630 76 215 0.9 2.6 0.00 0.00 0.00 45 1012.5
20260505225604 76 194 0.9 2.6 0.00 0.00 0.00 45 1012.5
20260505225552 76 212 0.9 2.6 0.00 0.00 0.00 46 1012.5
20260505225542 76 217 0.9 2.6 0.00 0.00 0.00 46 1012.5
20260505225329 76 207 0.9 2.6 0.00 0.00 0.00 45 1012.5
20260505225228 76 163 0.9 2.6 0.00 0.00 0.00 44 1012.5
20260505225129 76 136 0.9 4.3 0.00 0.00 0.00 44 1012.4
20260505225026 76 169 0.9 4.3 0.00 0.00 0.00 45 1012.4
20260505225017 76 144 0.9 4.3 0.00 0.00 0.00 45 1012.4
20260505224927 76 203 0.9 4.3 0.00 0.00 0.00 44 1012.4
20260505224859 77 163 0.9 4.3 0.00 0.00 0.00 43 1012.4
20260505224846 77 119 0.9 4.3 0.00 0.00 0.00 44 1012.4
20260505224725 77 194 0.9 4.3 0.00 0.00 0.00 43 1012.3
20260505224712 77 178 0.9 2.6 0.00 0.00 0.00 44 1012.5
20260505224706 77 145 0.9 2.6 0.00 0.00 0.00 44 1012.5
20260505224701 77 193 0.9 2.6 0.00 0.00 0.00 44 1012.5
20260505224656 77 217 0.9 2.6 0.00 0.00 0.00 43 1012.5
20260505224644 77 112 0.9 4.3 0.00 0.00 0.00 44 1012.3
20260505224520 77 163 0.9 4.3 0.00 0.00 0.00 43 1012.4
20260505224511 77 123 0.9 2.6 0.00 0.00 0.00 43 1012.4
20260505224455 77 155 0.9 4.3 0.00 0.00 0.00 45 1012.5
20260505224440 77 209 0.9 4.3 0.00 0.00 0.00 44 1012.5
20260505224423 77 123 0.9 4.3 0.00 0.00 0.00 44 1012.5
20260505224405 77 153 0.9 2.6 0.00 0.00 0.00 44 1012.5
20260505223736 77 130 0.9 2.6 0.00 0.00 0.00 43 1012.5
20260505223414 77 123 0.9 2.6 0.00 0.00 0.00 42 1012.3
20260505223315 77 123 0.9 2.6 0.00 0.00 0.00 42 1012.3
20260505223214 77 119 0.9 2.6 0.00 0.00 0.00 42 1012.2
20260505223137 77 202 0.9 2.6 0.00 0.00 0.00 43 1012.1
20260505223119 77 195 0.9 2.6 0.00 0.00 0.00 43 1012.2
20260505222915 77 215 0.9 2.6 0.00 0.00 0.00 43 1012.1
20260505222814 77 196 0.9 5.2 0.00 0.00 0.00 43 1012.1
20260505222713 77 161 0.9 5.2 0.00 0.00 0.00 43 1012.1
20260505222612 77 115 0.9 5.2 0.00 0.00 0.00 42 1012.1
20260505222543 77 113 0.9 5.2 0.00 0.00 0.00 42 1012.1
20260505222532 77 183 0.9 5.2 0.00 0.00 0.00 42 1012.2
20260505222527 77 159 0.9 5.2 0.00 0.00 0.00 42 1012.2
20260505222309 77 123 0.9 5.2 0.00 0.00 0.00 43 1012.2
20260505222208 77 206 0.9 5.2 0.00 0.00 0.00 43 1012.2
20260505222108 77 99 0.9 5.2 0.00 0.00 0.00 43 1012.2
20260505222016 77 115 0.9 5.2 0.00 0.00 0.00 43 1012.2
20260505222007 77 116 0.9 5.2 0.00 0.00 0.00 43 1012.2
20260505221906 77 107 0.0 5.2 0.00 0.00 0.00 43 1012.3
20260505221806 76 107 0.0 4.3 0.00 0.00 0.00 42 1012.3
20260505221704 76 125 0.0 4.3 0.00 0.00 0.00 43 1012.3
20260505221604 76 240 0.0 4.3 0.00 0.00 0.00 43 1012.3
20260505221523 77 199 0.0 2.6 0.00 0.00 0.00 43 1012.3
20260505221516 76 152 0.0 4.3 0.00 0.00 0.00 43 1012.2
20260505221503 76 230 0.0 4.3 0.00 0.00 0.00 43 1012.2
20260505221438 77 223 0.0 4.3 0.00 0.00 0.00 44 1012.3
20260505221432 77 200 0.0 2.6 0.00 0.00 0.00 43 1012.3
20260505221421 76 166 0.0 4.3 0.00 0.00 0.00 43 1012.2
20260505221246 77 180 0.0 3.5 0.00 0.00 0.00 43 1012.2
20260505220957 77 195 0.0 2.6 0.00 0.00 0.00 43 1012.3
20260505220857 77 212 0.0 2.6 0.00 0.00 0.00 43 1012.3
20260505220824 77 101 0.9 2.6 0.00 0.00 0.00 43 1012.4
20260505220814 77 182 0.0 2.6 0.00 0.00 0.00 43 1012.4
20260505220556 77 117 0.0 4.3 0.00 0.00 0.00 43 1012.5
20260505220516 77 107 0.0 4.3 0.00 0.00 0.00 43 1012.5
20260505220455 77 186 0.0 4.3 0.00 0.00 0.00 43 1012.5
20260505220355 77 121 0.9 4.3 0.00 0.00 0.00 43 1012.5
20260505220331 77 145 0.9 4.3 0.00 0.00 0.00 43 1012.6
20260505220320 77 186 0.9 4.3 0.00 0.00 0.00 43 1012.6
20260505220052 77 221 0.9 4.3 0.00 0.00 0.00 42 1012.5
20260505220015 77 201 0.9 4.3 0.00 0.00 0.00 42 1012.5
20260505215950 77 201 0.9 4.3 0.00 0.00 0.00 42 1012.5
20260505215915 77 209 0.9 4.3 0.00 0.00 0.00 41 1012.5
20260505215906 77 199 0.9 4.3 0.00 0.00 0.00 42 1012.5
20260505215647 77 209 0.0 4.3 0.00 0.00 0.00 41 1012.5
20260505215547 78 123 0.0 4.3 0.00 0.00 0.00 41 1012.5
20260505215515 78 199 0.0 4.3 0.00 0.00 0.00 41 1012.5
20260505215447 78 221 0.0 4.3 0.00 0.00 0.00 41 1012.5
20260505215346 78 159 0.0 2.6 0.00 0.00 0.00 42 1012.6
20260505215310 78 111 0.0 2.6 0.00 0.00 0.00 42 1012.6
20260505215305 78 241 0.0 2.6 0.00 0.00 0.00 42 1012.6
20260505215044 78 112 0.9 3.5 0.00 0.00 0.00 41 1012.6
20260505215013 78 112 0.9 3.5 0.00 0.00 0.00 41 1012.6
20260505214941 78 111 0.9 3.5 0.00 0.00 0.00 41 1012.6
20260505214841 78 111 0.9 3.5 0.00 0.00 0.00 41 1012.6
20260505214741 78 219 0.9 5.2 0.00 0.00 0.00 40 1012.6
20260505214640 78 290 0.9 5.2 0.00 0.00 0.00 40 1012.6
20260505214609 78 159 0.9 5.2 0.00 0.00 0.00 40 1012.5
20260505214559 78 149 0.9 5.2 0.00 0.00 0.00 40 1012.6
20260505214547 78 159 0.9 5.2 0.00 0.00 0.00 39 1012.5
20260505214337 78 127 0.9 5.2 0.00 0.00 0.00 39 1012.5
20260505214239 78 133 0.9 5.2 0.00 0.00 0.00 39 1012.6
20260505214137 78 210 0.9 5.2 0.00 0.00 0.00 39 1012.5
20260505214035 78 200 0.9 5.2 0.00 0.00 0.00 39 1012.5
20260505214013 78 210 0.9 5.2 0.00 0.00 0.00 39 1012.5
20260505213936 78 128 0.9 5.2 0.00 0.00 0.00 39 1012.5
20260505213903 78 112 0.9 3.5 0.00 0.00 0.00 38 1012.5
20260505213853 78 104 0.9 5.2 0.00 0.00 0.00 38 1012.5
20260505213700 78 198 0.9 5.2 0.00 0.00 0.00 39 1012.6
20260505213651 78 198 0.9 3.5 0.00 0.00 0.00 39 1012.5
20260505213513 78 135 0.9 5.2 0.00 0.00 0.00 39 1012.6
20260505213434 78 169 0.9 5.2 0.00 0.00 0.00 39 1012.6
20260505213331 78 117 0.9 5.2 0.00 0.00 0.00 38 1012.6
20260505213232 78 172 0.9 5.2 0.00 0.00 0.00 38 1012.5
20260505213156 79 153 0.9 5.2 0.00 0.00 0.00 38 1012.5
20260505213148 78 123 0.9 5.2 0.00 0.00 0.00 38 1012.5
20260505213013 79 169 0.9 5.2 0.00 0.00 0.00 38 1012.5
20260505212929 79 184 0.9 5.2 0.00 0.00 0.00 39 1012.5
20260505212830 79 134 0.9 5.2 0.00 0.00 0.00 40 1012.5
20260505212728 79 175 0.9 5.2 0.00 0.00 0.00 39 1012.4
20260505212628 79 214 0.9 5.2 0.00 0.00 0.00 39 1012.3
20260505212529 79 194 0.9 3.5 0.00 0.00 0.00 39 1012.3
20260505212512 79 110 0.9 3.5 0.00 0.00 0.00 39 1012.2
20260505212426 79 180 0.9 3.5 0.00 0.00 0.00 39 1012.2
20260505212323 79 115 0.9 5.2 0.00 0.00 0.00 40 1012.2
20260505212224 79 110 0.9 5.2 0.00 0.00 0.00 40 1012.2
20260505212123 79 215 0.9 5.2 0.00 0.00 0.00 39 1012.1
20260505212054 79 209 0.9 5.2 0.00 0.00 0.00 40 1012.3
20260505212043 79 132 0.9 5.2 0.00 0.00 0.00 40 1012.2
20260505212034 79 134 0.9 5.2 0.00 0.00 0.00 40 1012.2
20260505211822 79 191 1.7 5.2 0.00 0.00 0.00 40 1012.3
20260505211722 79 145 1.7 5.2 0.00 0.00 0.00 39 1012.4
20260505211622 79 123 1.7 5.2 0.00 0.00 0.00 39 1012.5
20260505211557 79 242 1.7 5.2 0.00 0.00 0.00 38 1012.5
20260505211545 79 223 1.7 5.2 0.00 0.00 0.00 39 1012.4
20260505211536 79 226 1.7 5.2 0.00 0.00 0.00 39 1012.4
20260505211320 79 113 1.7 4.3 0.00 0.00 0.00 38 1012.5
20260505211220 79 236 1.7 7.8 0.00 0.00 0.00 38 1012.6
20260505211120 80 203 1.7 7.8 0.00 0.00 0.00 37 1012.5
20260505211059 81 153 0.9 7.8 0.00 0.00 0.00 36 1012.6
20260505211051 80 173 1.7 7.8 0.00 0.00 0.00 36 1012.5
20260505211046 80 157 1.7 7.8 0.00 0.00 0.00 37 1012.5
20260505211041 80 213 1.7 7.8 0.00 0.00 0.00 35 1012.5
20260505211033 80 145 1.7 7.8 0.00 0.00 0.00 37 1012.5
20260505211025 80 123 1.7 7.8 0.00 0.00 0.00 37 1012.5
20260505211011 80 201 1.7 7.8 0.00 0.00 0.00 37 1012.5
20260505210954 80 205 1.7 7.8 0.00 0.00 0.00 37 1012.5
20260505210556 80 140 1.7 7.8 0.00 0.00 0.00 36 1012.5
20260505210548 80 188 1.7 7.8 0.00 0.00 0.00 36 1012.5
20260505210215 81 159 0.9 6.1 0.00 0.00 0.00 36 1012.6
20260505210115 81 94 0.9 6.1 0.00 0.00 0.00 36 1012.6
20260505210048 81 205 0.9 6.1 0.00 0.00 0.00 35 1012.6
20260505210032 81 171 0.9 6.1 0.00 0.00 0.00 35 1012.6
20260505205815 81 145 0.9 6.1 0.00 0.00 0.00 36 1012.7
20260505205716 81 140 0.9 6.1 0.00 0.00 0.00 35 1012.8
20260505205649 81 187 0.9 6.1 0.00 0.00 0.00 36 1012.8
20260505205638 81 121 0.9 6.1 0.00 0.00 0.00 36 1012.8
20260505205516 81 187 0.9 6.1 0.00 0.00 0.00 36 1012.8
20260505205416 81 205 0.9 5.2 0.00 0.00 0.00 36 1012.7
20260505205316 81 240 1.7 5.2 0.00 0.00 0.00 36 1012.7
20260505205244 81 234 0.9 5.2 0.00 0.00 0.00 35 1012.7
20260505205235 81 250 1.7 5.2 0.00 0.00 0.00 36 1012.7
20260505205018 81 264 0.9 5.2 0.00 0.00 0.00 36 1012.7
20260505205014 81 258 0.9 5.2 0.00 0.00 0.00 36 1012.7
20260505204912 81 230 0.9 5.2 0.00 0.00 0.00 36 1012.7
20260505204812 81 159 0.9 5.2 0.00 0.00 0.00 36 1012.7
20260505204741 81 186 0.9 4.3 0.00 0.00 0.00 36 1012.7
20260505204730 81 190 0.9 5.2 0.00 0.00 0.00 35 1012.7
20260505204515 81 149 0.9 4.3 0.00 0.00 0.00 36 1012.7
20260505204510 81 118 0.9 4.3 0.00 0.00 0.00 36 1012.7
20260505204434 81 253 0.9 4.3 0.00 0.00 0.00 35 1012.8
20260505204425 81 261 0.9 4.3 0.00 0.00 0.00 35 1012.8
20260505204209 81 264 0.9 4.3 0.00 0.00 0.00 36 1012.8
20260505204139 81 252 1.7 4.3 0.00 0.00 0.00 36 1013.0
20260505204128 81 206 1.7 4.3 0.00 0.00 0.00 35 1012.9
20260505204111 81 169 1.7 4.3 0.00 0.00 0.00 36 1013.0
20260505203905 81 284 1.7 4.3 0.00 0.00 0.00 36 1012.9
20260505203834 81 121 1.7 4.3 0.00 0.00 0.00 35 1012.9
20260505203825 81 195 1.7 4.3 0.00 0.00 0.00 37 1012.9
20260505203606 82 129 1.7 4.3 0.00 0.00 0.00 34 1012.9
20260505203513 82 115 0.9 4.3 0.00 0.00 0.00 35 1012.8
20260505203506 82 69 0.9 4.3 0.00 0.00 0.00 35 1012.8
20260505203406 82 144 0.9 4.3 0.00 0.00 0.00 35 1012.8
20260505203306 82 149 0.9 4.3 0.00 0.00 0.00 34 1012.8
20260505203206 82 211 1.7 3.5 0.00 0.00 0.00 33 1012.9
20260505203139 82 272 1.7 6.1 0.00 0.00 0.00 35 1012.9
20260505203127 82 252 1.7 6.1 0.00 0.00 0.00 35 1012.9
20260505203112 82 271 1.7 6.1 0.00 0.00 0.00 35 1012.9
20260505202906 82 192 1.7 6.1 0.00 0.00 0.00 36 1012.9
20260505202806 82 186 1.7 6.1 0.00 0.00 0.00 35 1012.9
20260505202733 82 115 1.7 6.1 0.00 0.00 0.00 34 1012.9
20260505202723 82 123 1.7 6.1 0.00 0.00 0.00 35 1012.9
20260505202514 82 156 1.7 6.1 0.00 0.00 0.00 36 1012.9
20260505202505 82 133 1.7 6.1 0.00 0.00 0.00 36 1012.9
20260505202431 82 137 1.7 6.1 0.00 0.00 0.00 34 1013.0
20260505202423 82 180 1.7 6.1 0.00 0.00 0.00 34 1012.9
20260505202206 82 134 0.9 6.1 0.00 0.00 0.00 34 1013.0
20260505202105 82 165 0.9 4.3 0.00 0.00 0.00 35 1013.0
20260505202011 82 136 1.7 6.1 0.00 0.00 0.00 34 1013.0
20260505202005 82 130 1.7 6.1 0.00 0.00 0.00 34 1013.0
20260505201905 82 137 0.9 7.8 0.00 0.00 0.00 36 1013.1
20260505201805 82 113 1.7 7.8 0.00 0.00 0.00 36 1013.1
20260505201705 82 241 1.7 7.8 0.00 0.00 0.00 36 1013.1
20260505201603 82 248 1.7 7.8 0.00 0.00 0.00 35 1013.0
20260505201511 82 234 1.7 7.8 0.00 0.00 0.00 36 1013.1
20260505201504 81 236 1.7 7.8 0.00 0.00 0.00 36 1013.1
20260505201401 81 128 1.7 7.8 0.00 0.00 0.00 37 1013.1
20260505201301 81 272 1.7 9.6 0.00 0.00 0.00 36 1013.1
20260505201227 82 103 1.7 9.6 0.00 0.00 0.00 35 1013.1
20260505201216 82 222 1.7 9.6 0.00 0.00 0.00 35 1013.0
20260505201012 82 126 1.7 9.6 0.00 0.00 0.00 34 1013.1
20260505201000 82 44 1.7 9.6 0.00 0.00 0.00 34 1013.1
20260505200859 82 258 1.7 9.6 0.00 0.00 0.00 35 1013.1
20260505200801 82 75 1.7 9.6 0.00 0.00 0.00 35 1013.2
20260505200659 82 205 1.7 9.6 0.00 0.00 0.00 36 1013.2
20260505200600 82 283 1.7 9.6 0.00 0.00 0.00 36 1013.2
20260505200511 82 292 1.7 9.6 0.00 0.00 0.00 36 1013.4
20260505200458 82 138 1.7 9.6 0.00 0.00 0.00 36 1013.4
20260505200357 82 221 1.7 9.6 0.00 0.00 0.00 37 1013.4
20260505200257 81 267 1.7 7.0 0.00 0.00 0.00 36 1013.2
20260505200159 81 133 1.7 7.0 0.00 0.00 0.00 35 1013.4
20260505200058 81 209 1.7 7.0 0.00 0.00 0.00 34 1013.4
20260505200011 81 191 0.9 3.5 0.00 0.00 0.00 34 1013.4
20260505195958 81 150 0.9 3.5 0.00 0.00 0.00 34 1013.4
20260505195858 81 272 0.9 3.5 0.00 0.00 0.00 36 1013.4
20260505195759 81 225 0.9 3.5 0.00 0.00 0.00 35 1013.4
20260505195657 81 138 0.9 3.5 0.00 0.00 0.00 34 1013.4
20260505195559 81 256 0.9 3.5 0.00 0.00 0.00 34 1013.2
20260505195512 81 229 0.9 3.5 0.00 0.00 0.00 33 1013.2
20260505195457 82 244 0.9 3.5 0.00 0.00 0.00 33 1013.2
20260505195358 82 263 1.7 9.6 0.00 0.00 0.00 33 1013.4
20260505195258 82 253 1.7 9.6 0.00 0.00 0.00 34 1013.2
20260505195157 82 256 1.7 9.6 0.00 0.00 0.00 36 1013.4
20260505195057 82 115 1.7 9.6 0.00 0.00 0.00 37 1013.4
20260505195011 81 109 1.7 9.6 0.00 0.00 0.00 37 1013.4
20260505195005 81 109 1.7 7.8 0.00 0.00 0.00 39 1013.4
20260505194958 81 132 1.7 9.6 0.00 0.00 0.00 37 1013.4
20260505194950 81 187 2.6 9.6 0.00 0.00 0.00 36 1013.4
20260505194946 81 159 2.6 9.6 0.00 0.00 0.00 38 1013.4
20260505194934 81 128 1.7 9.6 0.00 0.00 0.00 37 1013.4
20260505194759 81 127 2.6 9.6 0.00 0.00 0.00 37 1013.4
20260505194636 81 134 2.6 9.6 0.00 0.00 0.00 40 1013.4
20260505194620 81 138 2.6 9.6 0.00 0.00 0.00 40 1013.4
20260505194326 81 119 1.7 7.0 0.00 0.00 0.00 36 1013.5
20260505194316 81 333 1.7 6.1 0.00 0.00 0.00 37 1013.5
20260505194136 81 145 2.6 7.0 0.00 0.00 0.00 36 1013.6
20260505194131 81 115 1.7 7.0 0.00 0.00 0.00 38 1013.7
20260505194119 81 219 2.6 7.0 0.00 0.00 0.00 37 1013.6
20260505194104 81 176 2.6 7.0 0.00 0.00 0.00 36 1013.6
20260505193857 81 175 2.6 7.0 0.00 0.00 0.00 37 1013.6
20260505193758 81 222 2.6 7.0 0.00 0.00 0.00 35 1013.6
20260505193749 81 113 1.7 7.0 0.00 0.00 0.00 38 1013.7
20260505193732 81 107 2.6 7.0 0.00 0.00 0.00 37 1013.7
20260505193716 81 123 2.6 7.0 0.00 0.00 0.00 38 1013.7
20260505193353 81 129 1.7 7.0 0.00 0.00 0.00 37 1013.8
20260505193254 81 169 1.7 7.0 0.00 0.00 0.00 36 1013.8
20260505193154 81 202 1.7 7.0 0.00 0.00 0.00 36 1013.8
20260505193127 81 121 1.7 6.1 0.00 0.00 0.00 37 1013.8
20260505193116 81 45 1.7 7.0 0.00 0.00 0.00 37 1013.7
20260505193101 81 144 1.7 6.1 0.00 0.00 0.00 37 1013.8
20260505192853 81 202 1.7 6.1 0.00 0.00 0.00 37 1013.8
20260505192755 81 233 1.7 6.1 0.00 0.00 0.00 37 1013.8
20260505192654 81 149 1.7 6.1 0.00 0.00 0.00 38 1013.9
20260505192553 81 121 1.7 6.1 0.00 0.00 0.00 37 1013.9
20260505192520 80 200 2.6 7.0 0.00 0.00 0.00 38 1014.0
20260505192511 81 165 1.7 6.1 0.00 0.00 0.00 38 1014.0
20260505192452 81 111 1.7 6.1 0.00 0.00 0.00 38 1014.0
20260505192354 81 98 2.6 7.0 0.00 0.00 0.00 37 1014.1
20260505192254 81 223 2.6 7.0 0.00 0.00 0.00 37 1014.1
20260505192155 80 138 2.6 7.0 0.00 0.00 0.00 37 1014.1
20260505192131 80 119 2.6 7.0 0.00 0.00 0.00 37 1014.0
20260505192011 80 107 2.6 7.0 0.00 0.00 0.00 37 1014.0
20260505191955 80 144 2.6 7.0 0.00 0.00 0.00 37 1014.0
20260505191854 80 161 2.6 7.0 0.00 0.00 0.00 37 1014.0
20260505191754 80 186 2.6 7.0 0.00 0.00 0.00 38 1014.1
20260505191653 80 111 2.6 7.0 0.00 0.00 0.00 38 1014.0
20260505191626 80 150 2.6 7.0 0.00 0.00 0.00 38 1014.0
20260505191454 80 250 2.6 7.0 0.00 0.00 0.00 39 1014.0
20260505191419 80 105 2.6 7.0 0.00 0.00 0.00 41 1014.0
20260505191411 80 104 2.6 7.0 0.00 0.00 0.00 39 1014.0
20260505191154 80 148 1.7 7.0 0.00 0.00 0.00 41 1014.1
20260505191054 80 187 1.7 7.0 0.00 0.00 0.00 41 1014.1
20260505191012 80 115 1.7 7.0 0.00 0.00 0.00 41 1014.0
20260505190953 80 235 1.7 7.0 0.00 0.00 0.00 40 1014.0
20260505190854 80 80 1.7 7.0 0.00 0.00 0.00 40 1014.1
20260505190755 80 219 1.7 7.0 0.00 0.00 0.00 39 1014.1
20260505190653 80 172 1.7 7.0 0.00 0.00 0.00 38 1014.1
20260505190554 80 115 0.9 5.2 0.00 0.00 0.00 38 1014.1
20260505190512 80 117 0.9 7.8 0.00 0.00 0.00 38 1014.2
20260505190454 80 111 0.9 7.8 0.00 0.00 0.00 40 1014.2
20260505190354 80 227 0.9 7.8 0.00 0.00 0.00 39 1014.2
20260505190252 80 191 0.9 7.8 0.00 0.00 0.00 39 1014.2
20260505190154 80 150 0.9 7.8 0.00 0.00 0.00 39 1014.2
20260505190052 80 144 0.9 7.8 0.00 0.00 0.00 38 1014.2
20260505190026 80 243 0.9 7.8 0.00 0.00 0.00 37 1014.2
20260505190018 80 144 0.9 7.8 0.00 0.00 0.00 38 1014.2
20260505190011 80 219 0.9 7.8 0.00 0.00 0.00 38 1014.2
20260505185753 80 176 0.9 7.8 0.00 0.00 0.00 38 1014.2
20260505185653 80 213 0.9 7.8 0.00 0.00 0.00 38 1014.2
20260505185621 80 148 0.9 5.2 0.00 0.00 0.00 38 1014.1
20260505185611 80 95 0.9 7.8 0.00 0.00 0.00 38 1014.2
20260505185557 80 130 0.9 6.1 0.00 0.00 0.00 38 1014.1
20260505185350 80 246 1.7 7.0 0.00 0.00 0.00 37 1014.2
20260505185250 80 246 1.7 7.0 0.00 0.00 0.00 38 1014.2
20260505185150 80 137 1.7 7.0 0.00 0.00 0.00 39 1014.1
20260505185050 80 234 1.7 7.0 0.00 0.00 0.00 38 1014.2
20260505185021 80 128 1.7 7.0 0.00 0.00 0.00 38 1014.2
20260505185013 80 226 1.7 7.0 0.00 0.00 0.00 37 1014.2
20260505185006 80 175 1.7 7.0 0.00 0.00 0.00 37 1014.2
20260505184750 80 115 0.9 7.0 0.00 0.00 0.00 40 1014.2
20260505184657 79 236 1.7 7.0 0.00 0.00 0.00 37 1014.2
20260505184648 79 248 1.7 7.0 0.00 0.00 0.00 38 1014.2
20260505184632 79 158 1.7 7.0 0.00 0.00 0.00 37 1014.2
20260505184515 79 183 1.7 7.0 0.00 0.00 0.00 36 1014.2
20260505184506 79 225 1.7 7.0 0.00 0.00 0.00 36 1014.2
20260505184250 79 266 1.7 7.0 0.00 0.00 0.00 36 1014.2
20260505184149 80 248 1.7 7.0 0.00 0.00 0.00 36 1014.2
20260505184057 80 145 2.6 8.7 0.00 0.00 0.00 37 1014.3
20260505184051 80 267 2.6 7.0 0.00 0.00 0.00 37 1014.2
20260505184044 80 113 2.6 8.7 0.00 0.00 0.00 36 1014.3
20260505184032 80 230 2.6 8.7 0.00 0.00 0.00 36 1014.2
20260505184024 80 112 2.6 8.7 0.00 0.00 0.00 36 1014.2
20260505183657 80 89 2.6 10.4 0.00 0.00 0.00 38 1014.3
20260505183650 80 145 2.6 8.7 0.00 0.00 0.00 37 1014.3
20260505183633 80 237 2.6 8.7 0.00 0.00 0.00 36 1014.3
20260505183514 80 213 2.6 8.7 0.00 0.00 0.00 36 1014.3
20260505183506 80 118 2.6 8.7 0.00 0.00 0.00 36 1014.3
20260505183249 80 219 3.5 10.4 0.00 0.00 0.00 37 1014.3
20260505183148 80 272 3.5 10.4 0.00 0.00 0.00 37 1014.3
20260505183050 80 167 2.6 10.4 0.00 0.00 0.00 38 1014.2
20260505183011 80 187 2.6 10.4 0.00 0.00 0.00 38 1014.2
20260505182948 80 232 2.6 10.4 0.00 0.00 0.00 37 1014.2
20260505182850 80 115 2.6 10.4 0.00 0.00 0.00 38 1014.2
20260505182748 80 102 2.6 10.4 0.00 0.00 0.00 37 1014.2
20260505182649 80 99 2.6 10.4 0.00 0.00 0.00 36 1014.3
20260505182549 80 159 2.6 10.4 0.00 0.00 0.00 36 1014.3
20260505182510 80 107 2.6 10.4 0.00 0.00 0.00 35 1014.3
20260505182450 80 111 2.6 10.4 0.00 0.00 0.00 37 1014.3
20260505182350 80 128 1.7 7.0 0.00 0.00 0.00 36 1014.3
20260505182248 80 109 1.7 6.1 0.00 0.00 0.00 36 1014.3
20260505182149 80 225 1.7 6.1 0.00 0.00 0.00 37 1014.3
20260505182056 80 145 1.7 7.8 0.00 0.00 0.00 39 1014.4
20260505182050 81 157 1.7 5.2 0.00 0.00 0.00 37 1014.3
20260505182033 81 105 1.7 6.1 0.00 0.00 0.00 37 1014.4
20260505182026 81 94 1.7 6.1 0.00 0.00 0.00 37 1014.4
20260505181905 80 149 1.7 6.1 0.00 0.00 0.00 38 1014.3
20260505181717 80 25 1.7 7.8 0.00 0.00 0.00 39 1014.3
20260505181707 80 121 1.7 7.8 0.00 0.00 0.00 39 1014.3
20260505181510 80 141 1.7 7.8 0.00 0.00 0.00 38 1014.1
20260505181449 80 178 1.7 7.8 0.00 0.00 0.00 38 1014.1
20260505181350 80 244 1.7 7.8 0.00 0.00 0.00 37 1014.2
20260505181248 80 157 1.7 7.8 0.00 0.00 0.00 38 1014.2
20260505181150 80 151 2.6 7.8 0.00 0.00 0.00 37 1014.2
20260505181048 80 96 1.7 7.8 0.00 0.00 0.00 37 1014.3
20260505181008 80 105 1.7 7.8 0.00 0.00 0.00 36 1014.3
20260505180950 80 134 1.7 7.8 0.00 0.00 0.00 36 1014.3
20260505180849 80 121 1.7 7.8 0.00 0.00 0.00 36 1014.3
20260505180749 80 246 1.7 6.1 0.00 0.00 0.00 37 1014.4
20260505180651 80 164 1.7 6.1 0.00 0.00 0.00 39 1014.3
20260505180547 80 127 1.7 6.1 0.00 0.00 0.00 39 1014.4
20260505180522 80 245 1.7 6.1 0.00 0.00 0.00 40 1014.3
20260505180514 80 164 1.7 6.1 0.00 0.00 0.00 39 1014.3
20260505180506 80 187 1.7 6.1 0.00 0.00 0.00 39 1014.3
20260505180247 80 201 1.7 6.1 0.00 0.00 0.00 37 1014.3
20260505180147 80 211 1.7 6.1 0.00 0.00 0.00 38 1014.3
20260505180123 80 290 1.7 6.1 0.00 0.00 0.00 38 1014.4
20260505180118 80 162 1.7 4.3 0.00 0.00 0.00 43 1014.5
20260505180108 80 116 1.7 6.1 0.00 0.00 0.00 38 1014.3
20260505180054 80 229 1.7 6.1 0.00 0.00 0.00 38 1014.4
20260505175844 80 219 1.7 6.1 0.00 0.00 0.00 37 1014.4
20260505175741 80 118 1.7 6.1 0.00 0.00 0.00 39 1014.4
20260505175734 80 186 1.7 4.3 0.00 0.00 0.00 43 1014.5
20260505175717 80 103 1.7 6.1 0.00 0.00 0.00 41 1014.5
20260505175700 80 137 1.7 4.3 0.00 0.00 0.00 43 1014.5
20260505175336 80 286 1.7 4.3 0.00 0.00 0.00 40 1014.4
20260505175305 80 111 1.7 4.3 0.00 0.00 0.00 40 1014.5
20260505175253 80 230 1.7 4.3 0.00 0.00 0.00 41 1014.5
20260505175036 80 152 1.7 4.3 0.00 0.00 0.00 41 1014.6
20260505175017 80 128 1.7 7.0 0.00 0.00 0.00 40 1014.8
20260505175010 80 188 1.7 4.3 0.00 0.00 0.00 41 1014.6
20260505174935 80 278 1.7 4.3 0.00 0.00 0.00 40 1014.6
20260505174836 80 207 1.7 7.0 0.00 0.00 0.00 40 1014.7
20260505174808 80 113 1.7 7.0 0.00 0.00 0.00 40 1014.8
20260505174756 80 118 1.7 7.0 0.00 0.00 0.00 40 1014.7
20260505174620 80 153 1.7 7.0 0.00 0.00 0.00 40 1014.8
20260505174431 80 148 1.7 7.8 0.00 0.00 0.00 42 1014.8
20260505174331 80 176 2.6 7.8 0.00 0.00 0.00 41 1014.7
20260505174231 80 109 2.6 7.8 0.00 0.00 0.00 41 1014.8
20260505174157 80 106 2.6 7.8 0.00 0.00 0.00 40 1014.8
20260505174146 80 123 2.6 7.8 0.00 0.00 0.00 40 1014.8
20260505174008 80 234 1.7 7.8 0.00 0.00 0.00 40 1014.8
20260505173930 80 229 1.7 7.8 0.00 0.00 0.00 40 1014.8
20260505173827 80 123 1.7 7.8 0.00 0.00 0.00 41 1014.8
20260505173726 80 85 1.7 7.8 0.00 0.00 0.00 40 1015.0
20260505173628 80 130 1.7 7.8 0.00 0.00 0.00 40 1015.0
20260505173559 80 68 1.7 6.1 0.00 0.00 0.00 41 1014.9
20260505173547 80 120 1.7 7.8 0.00 0.00 0.00 41 1015.0
20260505173537 80 109 1.7 7.8 0.00 0.00 0.00 40 1014.9
20260505173325 80 84 1.7 7.0 0.00 0.00 0.00 43 1015.0
20260505173225 80 88 1.7 7.0 0.00 0.00 0.00 44 1015.0
20260505173125 80 128 1.7 7.0 0.00 0.00 0.00 43 1015.0
20260505173025 80 102 1.7 7.0 0.00 0.00 0.00 43 1015.0
20260505173014 80 130 1.7 7.0 0.00 0.00 0.00 41 1015.1
20260505173007 80 141 1.7 7.0 0.00 0.00 0.00 41 1014.9
20260505172925 80 115 1.7 7.0 0.00 0.00 0.00 41 1014.9
20260505172852 80 200 1.7 7.0 0.00 0.00 0.00 41 1015.0
20260505172843 80 125 1.7 7.0 0.00 0.00 0.00 41 1015.0
20260505172633 80 213 1.7 7.0 0.00 0.00 0.00 41 1015.0
20260505172617 80 254 1.7 7.0 0.00 0.00 0.00 41 1015.1
20260505172426 80 217 1.7 7.0 0.00 0.00 0.00 40 1015.1
20260505172325 80 117 1.7 7.0 0.00 0.00 0.00 40 1015.1
20260505172223 80 207 1.7 7.0 0.00 0.00 0.00 42 1015.2
20260505172148 80 130 1.7 6.1 0.00 0.00 0.00 43 1015.1
20260505172140 80 219 1.7 7.0 0.00 0.00 0.00 42 1015.2
20260505172006 80 140 1.7 6.1 0.00 0.00 0.00 43 1015.1
20260505171923 80 113 1.7 6.1 0.00 0.00 0.00 41 1015.1
20260505171824 80 277 1.7 6.1 0.00 0.00 0.00 41 1015.2
20260505171723 79 209 1.7 7.0 0.00 0.00 0.00 42 1015.2
20260505171623 79 219 2.6 7.0 0.00 0.00 0.00 41 1015.2
20260505171522 79 265 2.6 8.7 0.00 0.00 0.00 40 1015.1
20260505171507 79 223 2.6 8.7 0.00 0.00 0.00 40 1015.2
20260505171424 79 118 2.6 8.7 0.00 0.00 0.00 41 1015.2
20260505171323 79 217 3.5 9.6 0.00 0.00 0.00 40 1015.2
20260505171223 79 256 2.6 9.6 0.00 0.00 0.00 41 1015.3
20260505171128 79 123 2.6 9.6 0.00 0.00 0.00 40 1015.3
20260505171123 79 248 2.6 9.6 0.00 0.00 0.00 40 1015.3
20260505171115 79 165 2.6 9.6 0.00 0.00 0.00 40 1015.4
20260505171101 79 133 2.6 9.6 0.00 0.00 0.00 41 1015.4
20260505171051 79 108 2.6 9.6 0.00 0.00 0.00 41 1015.4
20260505170722 80 143 2.6 9.6 0.00 0.00 0.00 40 1015.3
20260505170623 80 182 1.7 9.6 0.00 0.00 0.00 43 1015.3
20260505170522 80 224 1.7 9.6 0.00 0.00 0.00 41 1015.2
20260505170507 80 226 1.7 9.6 0.00 0.00 0.00 41 1015.2
20260505170421 80 129 1.7 9.6 0.00 0.00 0.00 42 1015.2
20260505170347 80 141 1.7 5.2 0.00 0.00 0.00 43 1015.2
20260505170338 80 210 1.7 5.2 0.00 0.00 0.00 41 1015.1
20260505170146 79 249 1.7 7.8 0.00 0.00 0.00 41 1015.1
20260505170137 79 101 1.7 5.2 0.00 0.00 0.00 42 1015.2
20260505170007 79 242 1.7 7.8 0.00 0.00 0.00 41 1015.1
20260505165918 79 167 1.7 7.8 0.00 0.00 0.00 41 1015.1
20260505165818 79 225 1.7 7.8 0.00 0.00 0.00 41 1015.2
20260505165718 79 163 1.7 7.8 0.00 0.00 0.00 41 1015.2
20260505165619 79 242 2.6 8.7 0.00 0.00 0.00 42 1015.2
20260505165519 79 246 1.7 8.7 0.00 0.00 0.00 42 1015.2
20260505165507 79 245 1.7 8.7 0.00 0.00 0.00 41 1015.2
20260505165445 79 280 1.7 8.7 0.00 0.00 0.00 43 1015.2
20260505165437 79 202 1.7 8.7 0.00 0.00 0.00 41 1015.3
20260505165235 78 299 0.9 7.8 0.00 0.00 0.00 49 1015.2
20260505165230 78 111 0.9 4.3 0.00 0.00 0.00 47 1015.2
20260505165221 79 191 1.7 8.7 0.00 0.00 0.00 42 1015.2
20260505165203 79 146 1.7 8.7 0.00 0.00 0.00 43 1015.2
20260505165046 78 114 0.9 4.3 0.00 0.00 0.00 48 1015.2
20260505165036 78 163 1.7 8.7 0.00 0.00 0.00 44 1015.2
20260505165027 78 145 1.7 8.7 0.00 0.00 0.00 44 1015.2
20260505165018 78 153 1.7 8.7 0.00 0.00 0.00 46 1015.2
20260505165008 78 266 1.7 8.7 0.00 0.00 0.00 47 1015.2
20260505164953 78 282 0.9 8.7 0.00 0.00 0.00 46 1015.3
20260505164555 78 229 0.9 4.3 0.00 0.00 0.00 48 1015.2
20260505164546 78 228 0.9 4.3 0.00 0.00 0.00 48 1015.2
20260505164213 78 104 0.9 4.3 0.00 0.00 0.00 48 1015.3
20260505164111 78 141 0.9 4.3 0.00 0.00 0.00 49 1015.3
20260505164013 78 126 0.9 4.3 0.00 0.00 0.00 50 1015.3
20260505164005 78 169 0.9 4.3 0.00 0.00 0.00 50 1015.3
20260505163911 77 114 0.9 4.3 0.00 0.00 0.00 51 1015.3
20260505163811 77 155 0.9 4.3 0.00 0.00 0.00 54 1015.3
20260505163709 77 244 1.7 4.3 0.00 0.00 0.00 52 1015.3
20260505163608 77 221 1.7 5.2 0.00 0.00 0.00 52 1015.3
20260505163507 77 148 1.7 5.2 0.00 0.00 0.00 53 1015.3
20260505163447 77 106 1.7 5.2 0.00 0.00 0.00 51 1015.1
20260505163434 76 251 1.7 5.2 0.00 0.00 0.00 52 1015.2
20260505163315 77 109 1.7 5.2 0.00 0.00 0.00 52 1015.2
20260505163308 76 272 1.7 5.2 0.00 0.00 0.00 51 1015.2
20260505163300 77 265 0.9 6.1 0.00 0.00 0.00 51 1015.1
20260505163247 76 106 1.7 5.2 0.00 0.00 0.00 50 1015.2
20260505163110 77 110 1.7 5.2 0.00 0.00 0.00 52 1015.2
20260505162906 77 120 1.7 5.2 0.00 0.00 0.00 51 1015.2
20260505162830 77 109 0.9 6.1 0.00 0.00 0.00 52 1015.1
20260505162822 77 106 1.7 6.1 0.00 0.00 0.00 51 1015.1
20260505162626 77 115 0.9 6.1 0.00 0.00 0.00 52 1015.2
20260505162504 77 266 0.9 6.1 0.00 0.00 0.00 51 1015.1
20260505162455 77 159 0.9 6.1 0.00 0.00 0.00 52 1015.2
20260505162450 77 152 0.9 6.1 0.00 0.00 0.00 52 1015.2
20260505162438 77 265 0.9 6.1 0.00 0.00 0.00 51 1015.2
20260505162106 77 173 0.9 6.1 0.00 0.00 0.00 51 1015.2
20260505162008 77 121 0.9 6.1 0.00 0.00 0.00 50 1015.2
20260505162004 77 118 0.9 6.1 0.00 0.00 0.00 50 1015.2
20260505161900 77 149 0.9 6.1 0.00 0.00 0.00 50 1015.1
20260505161802 77 195 0.9 5.2 0.00 0.00 0.00 50 1015.1
20260505161742 77 91 0.9 5.2 0.00 0.00 0.00 53 1015.0
20260505161729 77 148 0.9 5.2 0.00 0.00 0.00 51 1015.1
20260505161504 77 294 0.9 5.2 0.00 0.00 0.00 51 1015.1
20260505161459 77 294 0.9 5.2 0.00 0.00 0.00 52 1015.1
20260505161400 77 258 1.7 5.2 0.00 0.00 0.00 51 1015.1
20260505161258 77 242 1.7 5.2 0.00 0.00 0.00 52 1015.1
20260505161158 77 180 1.7 5.2 0.00 0.00 0.00 53 1015.1
20260505161129 76 241 1.7 5.2 0.00 0.00 0.00 53 1015.2
20260505161119 76 193 1.7 5.2 0.00 0.00 0.00 51 1015.2
20260505161102 76 241 1.7 5.2 0.00 0.00 0.00 53 1015.2
20260505160854 76 114 1.7 5.2 0.00 0.00 0.00 52 1015.2
20260505160823 76 146 1.7 5.2 0.00 0.00 0.00 52 1015.2
20260505160814 76 234 1.7 5.2 0.00 0.00 0.00 51 1015.2
20260505160629 76 99 1.7 5.2 0.00 0.00 0.00 51 1015.2
20260505160617 76 122 1.7 5.2 0.00 0.00 0.00 51 1015.2
20260505160601 76 111 1.7 5.2 0.00 0.00 0.00 51 1015.2
20260505160354 76 98 0.9 5.2 0.00 0.00 0.00 51 1015.2
20260505160256 76 76 0.9 5.2 0.00 0.00 0.00 52 1015.2
20260505160154 76 99 0.9 4.3 0.00 0.00 0.00 53 1015.2
20260505153144 74 114 0.0 1.7 0.00 0.00 0.00 56 1015.6
20260505153109 74 172 0.9 2.6 0.00 0.00 0.00 57 1015.6
20260505153058 74 136 0.0 2.6 0.00 0.00 0.00 57 1015.6
20260505153044 74 172 0.9 2.6 0.00 0.00 0.00 57 1015.6
20260505152836 74 275 0.9 2.6 0.00 0.00 0.00 57 1015.6
20260505152803 74 195 0.9 2.6 0.00 0.00 0.00 57 1015.7
20260505152754 74 275 0.9 2.6 0.00 0.00 0.00 58 1015.7
20260505152607 74 237 0.9 3.5 0.00 0.00 0.00 57 1015.7
20260505152557 74 188 0.9 3.5 0.00 0.00 0.00 57 1015.7
20260505152544 74 207 0.9 3.5 0.00 0.00 0.00 58 1015.7
20260505152336 73 119 0.9 3.5 0.00 0.00 0.00 56 1015.6
20260505152233 73 120 0.9 3.5 0.00 0.00 0.00 58 1015.6
20260505152133 73 120 0.9 3.5 0.00 0.00 0.00 58 1015.6
20260505152031 73 242 0.9 3.5 0.00 0.00 0.00 59 1015.6
20260505152002 73 339 0.9 3.5 0.00 0.00 0.00 59 1015.6
20260505151956 73 21 0.9 3.5 0.00 0.00 0.00 58 1015.6
20260505151948 73 335 0.9 3.5 0.00 0.00 0.00 59 1015.6
20260505151730 73 23 0.9 3.5 0.00 0.00 0.00 58 1015.6
20260505151626 73 340 0.9 3.5 0.00 0.00 0.00 60 1015.6
20260505151527 73 147 0.9 2.6 0.00 0.00 0.00 58 1015.6
20260505151504 72 148 0.9 2.6 0.00 0.00 0.00 58 1015.6
20260505151428 72 146 0.9 2.6 0.00 0.00 0.00 58 1015.6
20260505151351 72 13 0.9 2.6 0.00 0.00 0.00 59 1015.6
20260505151343 72 171 0.9 2.6 0.00 0.00 0.00 59 1015.6
20260505151123 72 342 0.9 2.6 0.00 0.00 0.00 60 1015.6
20260505151023 72 73 0.9 2.6 0.00 0.00 0.00 58 1015.7
20260505151003 72 89 0.0 2.6 0.00 0.00 0.00 60 1015.7
20260505150922 72 86 0.0 2.6 0.00 0.00 0.00 60 1015.7
20260505150823 72 107 0.0 2.6 0.00 0.00 0.00 58 1015.7
20260505150720 72 153 0.0 1.7 0.00 0.00 0.00 58 1015.6
20260505150622 72 121 0.0 1.7 0.00 0.00 0.00 59 1015.6
20260505150524 72 196 0.0 1.7 0.00 0.00 0.00 60 1015.6
20260505150517 72 323 0.0 3.5 0.00 0.00 0.00 60 1015.5
20260505150512 72 323 0.9 3.5 0.00 0.00 0.00 59 1015.5
20260505150504 72 215 0.0 3.5 0.00 0.00 0.00 60 1015.6
20260505150452 72 234 0.0 3.5 0.00 0.00 0.00 60 1015.5
20260505150122 72 332 0.9 3.5 0.00 0.00 0.00 59 1015.4
20260505140650 68 234 0.0 1.7 0.00 0.00 0.00 67 1015.8
20260505140635 69 193 0.0 1.7 0.00 0.00 0.00 64 1015.8
20260505140512 68 153 0.0 1.7 0.00 0.00 0.00 64 1015.8
20260505140507 68 154 0.0 1.7 0.00 0.00 0.00 64 1015.8
20260505140450 68 150 0.0 1.7 0.00 0.00 0.00 65 1015.8
20260505140336 68 234 0.0 1.7 0.00 0.00 0.00 66 1015.8
20260505140325 68 234 0.0 1.7 0.00 0.00 0.00 66 1015.8
20260505130217 60 146 0.0 1.7 0.00 0.00 0.00 78 1015.6
20260505130119 60 146 0.0 1.7 0.00 0.00 0.00 77 1015.6
20260505125000 57 16 0.0 1.7 0.00 0.00 0.00 83 1015.2
20260505124953 58 20 0.0 1.7 0.00 0.00 0.00 81 1015.4
20260505124908 58 135 0.0 1.7 0.00 0.00 0.00 81 1015.3
20260505124806 58 144 0.0 1.7 0.00 0.00 0.00 82 1015.3
20260505124752 57 16 0.0 1.7 0.00 0.00 0.00 83 1015.2
20260505124737 58 97 0.0 1.7 0.00 0.00 0.00 81 1015.3
20260505124720 57 146 0.0 1.7 0.00 0.00 0.00 82 1015.2
20260505124404 57 131 0.0 1.7 0.00 0.00 0.00 83 1015.2
20260505124302 57 129 0.0 1.7 0.00 0.00 0.00 83 1015.2
20260505124202 57 129 0.0 1.7 0.00 0.00 0.00 83 1015.3
20260505124101 57 129 0.0 1.7 0.00 0.00 0.00 83 1015.2
20260505123953 56 117 0.0 1.7 0.00 0.00 0.00 83 1015.3
20260505123859 56 117 0.0 1.7 0.00 0.00 0.00 83 1015.3
20260505123758 56 117 0.0 1.7 0.00 0.00 0.00 83 1015.3
20260505123658 56 142 0.0 0.9 0.00 0.00 0.00 84 1015.3
20260505123558 56 142 0.0 0.9 0.00 0.00 0.00 84 1015.3
20260505123456 56 121 0.0 0.0 0.00 0.00 0.00 84 1015.2
20260505123355 56 121 0.0 0.0 0.00 0.00 0.00 84 1015.2
20260505123255 56 121 0.0 0.0 0.00 0.00 0.00 84 1015.2
20260505123155 56 121 0.0 0.0 0.00 0.00 0.00 84 1015.2
20260505123055 56 121 0.0 0.0 0.00 0.00 0.00 84 1015.2
20260505122952 56 121 0.0 0.0 0.00 0.00 0.00 85 1015.1
20260505122853 56 121 0.0 0.0 0.00 0.00 0.00 85 1015.1
20260505122750 55 121 0.0 0.0 0.00 0.00 0.00 85 1015.1
20260505122652 55 121 0.0 0.0 0.00 0.00 0.00 85 1015.1
20260505122550 55 121 0.0 0.0 0.00 0.00 0.00 85 1015.1
20260505122448 55 121 0.0 0.0 0.00 0.00 0.00 84 1015.2
20260505122348 55 121 0.0 0.0 0.00 0.00 0.00 84 1015.2
20260505122312 55 121 0.0 0.0 0.00 0.00 0.00 84 1015.2
20260505122305 55 121 0.0 0.0 0.00 0.00 0.00 84 1015.2
20260505122046 55 121 0.0 0.0 0.00 0.00 0.00 85 1015.2
20260505121945 55 121 0.0 0.0 0.00 0.00 0.00 85 1015.2
20260505121844 55 121 0.0 0.0 0.00 0.00 0.00 85 1015.2
20260505121743 55 121 0.0 0.0 0.00 0.00 0.00 85 1015.1
20260505121708 55 121 0.0 0.0 0.00 0.00 0.00 85 1015.0
20260505121658 55 121 0.0 0.0 0.00 0.00 0.00 85 1015.1
20260505121440 55 121 0.0 0.0 0.00 0.00 0.00 86 1015.0
20260505121339 55 121 0.0 0.9 0.00 0.00 0.00 86 1015.0
20260505121238 55 121 0.0 0.9 0.00 0.00 0.00 86 1015.0
20260505121139 55 121 0.0 0.9 0.00 0.00 0.00 87 1014.9
20260505121039 54 121 0.0 0.9 0.00 0.00 0.00 87 1014.9
20260505121002 53 119 0.0 0.9 0.00 0.00 0.00 90 1014.9
20260505120937 54 121 0.0 0.9 0.00 0.00 0.00 87 1014.9
20260505120836 54 121 0.0 0.9 0.00 0.00 0.00 88 1014.9
20260505120734 54 121 0.0 0.9 0.00 0.00 0.00 88 1014.9
20260505120634 54 121 0.0 0.9 0.00 0.00 0.00 88 1014.9
20260505120628 53 120 0.0 0.9 0.00 0.00 0.00 89 1014.9
20260505120614 54 121 0.0 0.9 0.00 0.00 0.00 89 1014.8
20260505120455 54 121 0.0 0.9 0.00 0.00 0.00 89 1014.9
20260505120447 53 120 0.0 0.9 0.00 0.00 0.00 89 1014.9
20260505120257 53 120 0.0 0.9 0.00 0.00 0.00 90 1014.9
20260505120248 53 119 0.0 0.9 0.00 0.00 0.00 90 1014.9
20260505120105 53 120 0.0 0.9 0.00 0.00 0.00 90 1014.9
20260505115927 53 119 0.0 0.9 0.00 0.00 0.00 91 1014.9
20260505115916 52 120 0.0 0.0 0.00 0.00 0.00 91 1014.9
20260505115912 52 120 0.0 0.0 0.00 0.00 0.00 92 1015.0
20260505115900 53 120 0.0 0.0 0.00 0.00 0.00 91 1014.9
20260505115526 52 120 0.0 0.0 0.00 0.00 0.00 92 1014.9
20260505115453 52 119 0.0 0.0 0.00 0.00 0.00 92 1014.9
20260505115423 52 120 0.0 0.0 0.00 0.00 0.00 92 1014.9
20260505115323 52 119 0.0 0.0 0.00 0.00 0.00 92 1014.9
20260505115223 51 120 0.0 0.0 0.00 0.00 0.00 93 1014.8
20260505115123 51 120 0.0 0.0 0.00 0.00 0.00 93 1014.9
20260505115023 51 120 0.0 0.0 0.00 0.00 0.00 93 1014.8
20260505114923 51 120 0.0 0.0 0.00 0.00 0.00 93 1014.8
20260505114823 51 120 0.0 0.0 0.00 0.00 0.00 93 1014.8
20260505114724 51 119 0.0 0.0 0.00 0.00 0.00 93 1014.9
20260505114624 50 120 0.0 0.0 0.00 0.00 0.00 93 1014.8
20260505114524 50 120 0.0 0.0 0.00 0.00 0.00 93 1014.9
20260505114451 50 120 0.0 0.0 0.00 0.00 0.00 94 1014.9
20260505114424 50 119 0.0 0.0 0.00 0.00 0.00 94 1014.9
20260505114323 50 119 0.0 0.0 0.00 0.00 0.00 94 1014.9
20260505114221 50 119 0.0 0.0 0.00 0.00 0.00 94 1014.9
20260505114122 49 119 0.0 0.0 0.00 0.00 0.00 94 1014.9
20260505114020 49 119 0.0 0.0 0.00 0.00 0.00 94 1015.0
20260505113951 49 119 0.0 0.0 0.00 0.00 0.00 94 1015.0
20260505113920 49 119 0.0 0.0 0.00 0.00 0.00 94 1014.9
20260505113842 49 119 0.0 0.0 0.00 0.00 0.00 94 1014.8
20260505113834 49 120 0.0 0.0 0.00 0.00 0.00 94 1014.9
20260505113618 49 119 0.0 0.0 0.00 0.00 0.00 94 1014.9
20260505113517 49 120 0.0 0.0 0.00 0.00 0.00 94 1014.8
20260505113452 48 119 0.0 0.0 0.00 0.00 0.00 94 1014.8
20260505113417 48 120 0.0 0.0 0.00 0.00 0.00 94 1014.8
20260505113315 48 120 0.0 0.0 0.00 0.00 0.00 94 1014.7
20260505113213 48 119 0.0 0.0 0.00 0.00 0.00 94 1014.7
20260505113114 48 119 0.0 0.0 0.00 0.00 0.00 94 1014.7
20260505113012 48 119 0.0 0.0 0.00 0.00 0.00 94 1014.7
20260505112952 48 119 0.0 0.0 0.00 0.00 0.00 94 1014.7
20260505112912 48 120 0.0 0.0 0.00 0.00 0.00 94 1014.6
20260505112833 48 120 0.0 0.0 0.00 0.00 0.00 94 1014.6
20260505112826 48 120 0.0 0.0 0.00 0.00 0.00 94 1014.7
20260505112612 48 120 0.0 0.0 0.00 0.00 0.00 94 1014.6
20260505112511 47 120 0.0 0.0 0.00 0.00 0.00 94 1014.5
20260505112452 47 119 0.0 0.0 0.00 0.00 0.00 94 1014.5
20260505112410 47 120 0.0 0.0 0.00 0.00 0.00 94 1014.5
20260505112310 47 119 0.0 0.0 0.00 0.00 0.00 94 1014.4
20260505112210 47 119 0.0 0.0 0.00 0.00 0.00 94 1014.4
20260505112109 47 120 0.0 0.0 0.00 0.00 0.00 94 1014.4
20260505112007 47 120 0.0 0.0 0.00 0.00 0.00 94 1014.3
20260505111949 47 120 0.0 0.0 0.00 0.00 0.00 94 1014.3
20260505111908 47 120 0.0 0.0 0.00 0.00 0.00 94 1014.3
20260505111830 47 119 0.0 0.0 0.00 0.00 0.00 94 1014.3
20260505111822 47 119 0.0 0.0 0.00 0.00 0.00 94 1014.3
20260505111631 47 120 0.0 0.0 0.00 0.00 0.00 94 1014.3
20260505111622 47 120 0.0 0.0 0.00 0.00 0.00 94 1014.3
20260505111449 47 119 0.0 0.0 0.00 0.00 0.00 94 1014.3
20260505111406 47 120 0.0 0.0 0.00 0.00 0.00 94 1014.3
20260505111306 47 120 0.0 0.0 0.00 0.00 0.00 94 1014.3
20260505111234 47 119 0.0 0.0 0.00 0.00 0.00 94 1014.3
20260505111224 47 120 0.0 0.0 0.00 0.00 0.00 94 1014.3
20260505111005 47 119 0.0 0.0 0.00 0.00 0.00 94 1014.3
20260505110956 46 119 0.0 0.0 0.00 0.00 0.00 94 1014.2
20260505110949 47 120 0.0 0.0 0.00 0.00 0.00 94 1014.3
20260505110905 46 120 0.0 0.0 0.00 0.00 0.00 94 1014.3
20260505110805 46 120 0.0 0.0 0.00 0.00 0.00 94 1014.3
20260505110745 46 119 0.0 0.0 0.00 0.00 0.00 94 1014.2
20260505110733 46 120 0.0 0.0 0.00 0.00 0.00 94 1014.2
20260505110717 46 119 0.0 0.0 0.00 0.00 0.00 94 1014.2
20260505110405 46 119 0.0 0.0 0.00 0.00 0.00 93 1014.2
20260505110303 46 119 0.0 0.0 0.00 0.00 0.00 93 1014.2
20260505110204 46 120 0.0 0.0 0.00 0.00 0.00 93 1014.2
20260505110104 46 120 0.0 0.0 0.00 0.00 0.00 93 1014.2
20260505102137 46 120 0.0 0.0 0.00 0.00 0.00 93 1014.2
20260505102035 46 119 0.0 0.0 0.00 0.00 0.00 93 1014.2
20260505101935 46 119 0.0 0.0 0.00 0.00 0.00 93 1014.1
20260505101836 46 120 0.0 0.0 0.00 0.00 0.00 93 1014.1
20260505101737 47 119 0.0 0.0 0.00 0.00 0.00 93 1014.1
20260505101636 47 119 0.0 0.0 0.00 0.00 0.00 93 1014.1
20260505101536 47 119 0.0 0.0 0.00 0.00 0.00 93 1014.1
20260505101508 47 119 0.0 0.0 0.00 0.00 0.00 93 1014.1
20260505101458 47 120 0.0 0.0 0.00 0.00 0.00 93 1014.1
20260505101451 47 119 0.0 0.0 0.00 0.00 0.00 93 1014.1
20260505101237 47 120 0.0 0.0 0.00 0.00 0.00 93 1014.1
20260505101136 47 119 0.0 0.0 0.00 0.00 0.00 93 1014.0
20260505101035 47 120 0.0 0.0 0.00 0.00 0.00 93 1014.0
20260505100935 47 120 0.0 0.0 0.00 0.00 0.00 93 1014.0
20260505100835 47 119 0.0 0.0 0.00 0.00 0.00 93 1014.1
20260505100736 47 120 0.0 0.0 0.00 0.00 0.00 93 1014.1
20260505100636 47 119 0.0 0.0 0.00 0.00 0.00 93 1014.1
20260505100536 47 119 0.0 0.0 0.00 0.00 0.00 93 1014.1
20260505100435 47 119 0.0 0.0 0.00 0.00 0.00 93 1014.1
20260505100336 47 120 0.0 0.0 0.00 0.00 0.00 93 1014.1
20260505100237 47 120 0.0 0.0 0.00 0.00 0.00 93 1014.0
20260505100136 47 120 0.0 0.0 0.00 0.00 0.00 93 1014.0
20260505100037 47 120 0.0 0.0 0.00 0.00 0.00 93 1014.0
20260505095934 47 120 0.0 0.0 0.00 0.00 0.00 93 1014.0
20260505095834 47 119 0.0 0.0 0.00 0.00 0.00 93 1014.0
20260505095733 47 120 0.0 0.0 0.00 0.00 0.00 93 1013.9
20260505095633 47 120 0.0 0.0 0.00 0.00 0.00 93 1013.9
20260505095533 47 119 0.0 0.0 0.00 0.00 0.00 93 1013.9
20260505095443 47 119 0.0 0.0 0.00 0.00 0.00 93 1013.9
20260505095433 47 120 0.0 0.0 0.00 0.00 0.00 93 1013.9
20260505095334 47 120 0.0 0.0 0.00 0.00 0.00 93 1014.0
20260505095235 47 119 0.0 0.0 0.00 0.00 0.00 93 1014.0
20260505095134 47 119 0.0 0.0 0.00 0.00 0.00 93 1014.0
20260505095055 47 119 0.0 0.0 0.00 0.00 0.00 93 1014.0
20260505095039 47 119 0.0 0.0 0.00 0.00 0.00 93 1014.1
20260505094833 47 119 0.0 0.0 0.00 0.00 0.00 93 1014.1
20260505094733 47 120 0.0 0.0 0.00 0.00 0.00 93 1014.1
20260505094634 47 120 0.0 0.0 0.00 0.00 0.00 93 1014.1
20260505094533 47 119 0.0 0.0 0.00 0.00 0.00 93 1014.1
20260505094434 47 120 0.0 0.0 0.00 0.00 0.00 93 1014.1
20260505094333 47 119 0.0 0.0 0.00 0.00 0.00 93 1014.2
20260505094233 47 119 0.0 0.0 0.00 0.00 0.00 93 1014.2
20260505094159 47 119 0.0 0.0 0.00 0.00 0.00 93 1014.3
20260505094150 47 119 0.0 0.0 0.00 0.00 0.00 93 1014.2
20260505094006 47 119 0.0 0.0 0.00 0.00 0.00 93 1014.3
20260505093950 47 119 0.0 0.0 0.00 0.00 0.00 93 1014.2
20260505093735 47 119 0.0 0.0 0.00 0.00 0.00 93 1014.2
20260505093633 47 120 0.0 0.0 0.00 0.00 0.00 93 1014.3
20260505093533 47 120 0.0 0.0 0.00 0.00 0.00 93 1014.3
20260505093508 47 119 0.0 0.0 0.00 0.00 0.00 93 1014.4
20260505093456 47 119 0.0 0.0 0.00 0.00 0.00 93 1014.3
20260505093450 47 120 0.0 0.0 0.00 0.00 0.00 93 1014.3
20260505093259 47 120 0.0 0.0 0.00 0.00 0.00 93 1014.3
20260505093250 47 120 0.0 0.0 0.00 0.00 0.00 93 1014.4
20260505093033 47 120 0.0 0.0 0.00 0.00 0.00 93 1014.3
20260505092943 47 120 0.0 0.0 0.00 0.00 0.00 93 1014.2
20260505092932 47 119 0.0 0.0 0.00 0.00 0.00 93 1014.2
20260505092924 47 120 0.0 0.0 0.00 0.00 0.00 93 1014.2
20260505092919 47 120 0.0 0.0 0.00 0.00 0.00 93 1014.2
20260505092908 47 119 0.0 0.0 0.00 0.00 0.00 93 1014.2
20260505092534 47 119 0.0 0.0 0.00 0.00 0.00 93 1014.1
20260505092434 47 119 0.0 0.0 0.00 0.00 0.00 93 1014.1
20260505092333 47 120 0.0 0.0 0.00 0.00 0.00 93 1014.1
20260505092233 47 120 0.0 0.0 0.00 0.00 0.00 93 1014.1
20260505092133 47 119 0.0 0.0 0.00 0.00 0.00 93 1014.1
20260505092034 47 119 0.0 0.0 0.00 0.00 0.00 93 1014.1
20260505091944 47 119 0.0 0.0 0.00 0.00 0.00 93 1014.0
20260505091933 47 120 0.0 0.0 0.00 0.00 0.00 93 1014.0
20260505091833 47 120 0.0 0.0 0.00 0.00 0.00 93 1014.1
20260505091733 47 119 0.0 0.0 0.00 0.00 0.00 93 1014.1
20260505091659 47 120 0.0 0.0 0.00 0.00 0.00 93 1013.9
20260505091649 47 119 0.0 0.0 0.00 0.00 0.00 93 1014.0
20260505091442 47 120 0.0 0.0 0.00 0.00 0.00 93 1013.9
20260505091433 47 119 0.0 0.0 0.00 0.00 0.00 93 1013.9
20260505091333 47 120 0.0 0.0 0.00 0.00 0.00 93 1013.8
20260505091233 47 119 0.0 0.0 0.00 0.00 0.00 92 1013.9
20260505091159 47 120 0.0 0.0 0.00 0.00 0.00 92 1014.0
20260505091149 47 119 0.0 0.0 0.00 0.00 0.00 92 1014.0
20260505090944 47 120 0.0 0.0 0.00 0.00 0.00 92 1014.0
20260505090933 47 119 0.0 0.0 0.00 0.00 0.00 92 1014.0
20260505090833 47 119 0.0 0.0 0.00 0.00 0.00 92 1013.9
20260505090733 47 120 0.0 0.0 0.00 0.00 0.00 92 1013.9
20260505090634 47 119 0.0 0.0 0.00 0.00 0.00 92 1013.9
20260505090533 47 119 0.0 0.0 0.00 0.00 0.00 92 1013.9
20260505090443 47 119 0.0 0.0 0.00 0.00 0.00 92 1013.9
20260505090433 47 120 0.0 0.0 0.00 0.00 0.00 92 1013.9
20260505090334 47 120 0.0 0.0 0.00 0.00 0.00 92 1013.9
20260505090301 47 120 0.0 0.0 0.00 0.00 0.00 92 1014.0
20260505090252 47 119 0.0 0.0 0.00 0.00 0.00 92 1014.0
20260505090032 48 119 0.0 0.0 0.00 0.00 0.00 92 1014.0
20260505090004 48 119 0.0 0.0 0.00 0.00 0.00 92 1014.0
20260505085955 48 120 0.0 0.0 0.00 0.00 0.00 92 1014.0
20260505085949 48 119 0.0 0.0 0.00 0.00 0.00 92 1014.0
20260505085733 48 120 0.0 0.0 0.00 0.00 0.00 92 1014.1
20260505085634 48 119 0.0 0.0 0.00 0.00 0.00 92 1014.1
20260505085533 48 119 0.0 0.0 0.00 0.00 0.00 92 1014.1
20260505085434 48 120 0.0 0.0 0.00 0.00 0.00 92 1014.1
20260505085334 48 119 0.0 0.0 0.00 0.00 0.00 92 1014.2
20260505085300 48 119 0.0 0.0 0.00 0.00 0.00 92 1014.2
20260505085252 48 119 0.0 0.0 0.00 0.00 0.00 92 1014.2
20260505085056 48 120 0.0 0.0 0.00 0.00 0.00 92 1014.2
20260505085041 48 119 0.0 0.0 0.00 0.00 0.00 92 1014.3
20260505084833 48 119 0.0 0.0 0.00 0.00 0.00 92 1014.2
20260505084733 48 119 0.0 0.0 0.00 0.00 0.00 92 1014.2
20260505084633 48 120 0.0 0.0 0.00 0.00 0.00 92 1014.3
20260505084534 48 120 0.0 0.0 0.00 0.00 0.00 92 1014.2
20260505084506 48 120 0.0 0.0 0.00 0.00 0.00 92 1014.3
20260505084456 48 120 0.0 0.0 0.00 0.00 0.00 92 1014.2
20260505084450 48 119 0.0 0.0 0.00 0.00 0.00 92 1014.2
20260505084233 48 119 0.0 0.0 0.00 0.00 0.00 92 1014.3
20260505084132 48 119 0.0 0.9 0.00 0.00 0.00 92 1014.3
20260505084034 48 120 0.0 0.9 0.00 0.00 0.00 92 1014.3
20260505083943 48 119 0.0 0.9 0.00 0.00 0.00 92 1014.3
20260505083934 48 120 0.0 0.9 0.00 0.00 0.00 92 1014.3
20260505083835 48 119 0.0 0.9 0.00 0.00 0.00 92 1014.3
20260505083758 48 119 0.0 0.9 0.00 0.00 0.00 92 1014.3
20260505083750 48 120 0.0 0.9 0.00 0.00 0.00 92 1014.3
20260505083534 48 119 0.0 0.9 0.00 0.00 0.00 92 1014.4
20260505083433 48 120 0.0 0.9 0.00 0.00 0.00 92 1014.3
20260505083333 48 119 0.0 0.9 0.00 0.00 0.00 92 1014.4
20260505083234 48 119 0.0 0.9 0.00 0.00 0.00 92 1014.4
20260505083157 48 119 0.0 0.0 0.00 0.00 0.00 92 1014.4
20260505083146 48 120 0.0 0.0 0.00 0.00 0.00 92 1014.4
20260505082949 48 120 0.0 0.0 0.00 0.00 0.00 92 1014.4
20260505082929 48 119 0.0 0.0 0.00 0.00 0.00 92 1014.3
20260505082827 48 120 0.0 0.0 0.00 0.00 0.00 92 1014.3
20260505082725 48 120 0.0 0.0 0.00 0.00 0.00 92 1014.4
20260505082625 48 119 0.0 0.0 0.00 0.00 0.00 92 1014.3
20260505082557 48 119 0.0 0.0 0.00 0.00 0.00 92 1014.3
20260505082425 48 119 0.0 0.0 0.00 0.00 0.00 92 1014.4
20260505082324 48 119 0.0 0.0 0.00 0.00 0.00 92 1014.3
20260505082225 49 120 0.0 0.0 0.00 0.00 0.00 92 1014.3
20260505082150 49 120 0.0 0.0 0.00 0.00 0.00 92 1014.2
20260505082140 49 119 0.0 0.0 0.00 0.00 0.00 92 1014.3
20260505081943 49 120 0.0 0.0 0.00 0.00 0.00 92 1014.2
20260505081923 49 120 0.0 0.0 0.00 0.00 0.00 92 1014.3
20260505081824 49 120 0.0 0.0 0.00 0.00 0.00 92 1014.2
20260505081723 49 120 0.0 0.0 0.00 0.00 0.00 92 1014.2
20260505081624 49 119 0.0 0.0 0.00 0.00 0.00 92 1014.2
20260505081523 49 120 0.0 0.0 0.00 0.00 0.00 92 1014.2
20260505081454 49 120 0.0 0.0 0.00 0.00 0.00 92 1014.2
20260505081446 49 120 0.0 0.0 0.00 0.00 0.00 92 1014.2
20260505081438 49 119 0.0 0.0 0.00 0.00 0.00 92 1014.2
20260505081222 49 119 0.0 0.0 0.00 0.00 0.00 92 1014.2
20260505081121 49 120 0.0 0.0 0.00 0.00 0.00 92 1014.3
20260505081022 49 119 0.0 0.0 0.00 0.00 0.00 92 1014.2
20260505080919 49 120 0.0 0.0 0.00 0.00 0.00 92 1014.2
20260505080820 49 120 0.0 0.0 0.00 0.00 0.00 92 1014.2
20260505080719 49 120 0.0 0.0 0.00 0.00 0.00 92 1014.2
20260505080645 49 119 0.0 0.0 0.00 0.00 0.00 91 1014.2
20260505080635 49 119 0.0 0.0 0.00 0.00 0.00 92 1014.1
20260505080419 49 120 0.0 0.0 0.00 0.00 0.00 91 1014.2
20260505080318 49 120 0.0 0.0 0.00 0.00 0.00 91 1014.2
20260505080215 49 120 0.0 0.0 0.00 0.00 0.00 91 1014.2
20260505080114 49 120 0.0 0.0 0.00 0.00 0.00 91 1014.2
20260505080014 49 120 0.0 0.0 0.00 0.00 0.00 91 1014.2
20260505075915 49 119 0.0 0.0 0.00 0.00 0.00 91 1014.2
20260505075814 49 120 0.0 0.0 0.00 0.00 0.00 91 1014.2
20260505075713 49 119 0.0 0.0 0.00 0.00 0.00 91 1014.2
20260505075612 49 120 0.0 0.0 0.00 0.00 0.00 91 1014.2
20260505075510 49 120 0.0 0.0 0.00 0.00 0.00 91 1014.2
20260505075442 49 120 0.0 0.0 0.00 0.00 0.00 91 1014.2
20260505075434 49 120 0.0 0.0 0.00 0.00 0.00 91 1014.2
20260505075426 49 119 0.0 0.0 0.00 0.00 0.00 91 1014.2
20260505075209 49 119 0.0 0.0 0.00 0.00 0.00 91 1014.2
20260505075135 49 120 0.0 0.0 0.00 0.00 0.00 91 1014.1
20260505075126 49 120 0.0 0.0 0.00 0.00 0.00 91 1014.2
20260505074943 49 119 0.0 0.0 0.00 0.00 0.00 91 1014.1
20260505074909 49 119 0.0 0.0 0.00 0.00 0.00 91 1014.1
20260505074809 49 120 0.0 0.0 0.00 0.00 0.00 91 1014.2
20260505074709 49 120 0.0 0.0 0.00 0.00 0.00 91 1014.2
20260505074608 49 119 0.0 0.0 0.00 0.00 0.00 91 1014.1
20260505074508 49 119 0.0 0.0 0.00 0.00 0.00 91 1014.1
20260505074441 49 119 0.0 0.0 0.00 0.00 0.00 91 1014.1
20260505074406 49 120 0.0 0.0 0.00 0.00 0.00 91 1014.0
20260505074330 49 120 0.0 0.0 0.00 0.00 0.00 91 1014.1
20260505074322 49 119 0.0 0.0 0.00 0.00 0.00 91 1014.1
20260505074140 49 119 0.0 0.0 0.00 0.00 0.00 91 1014.2
20260505074132 49 120 0.0 0.0 0.00 0.00 0.00 91 1014.1
20260505074121 49 119 0.0 0.0 0.00 0.00 0.00 91 1014.1
20260505073956 49 119 0.0 0.0 0.00 0.00 0.00 91 1014.2
20260505073951 49 120 0.0 0.0 0.00 0.00 0.00 91 1014.1
20260505073943 49 119 0.0 0.0 0.00 0.00 0.00 91 1014.1
20260505073933 49 120 0.0 0.0 0.00 0.00 0.00 91 1014.1
20260505073800 49 120 0.0 0.0 0.00 0.00 0.00 91 1014.2
20260505073636 49 120 0.0 0.0 0.00 0.00 0.00 91 1014.2
20260505073509 49 120 0.0 0.0 0.00 0.00 0.00 91 1014.1
20260505073257 49 119 0.0 0.0 0.00 0.00 0.00 91 1014.1
20260505073158 49 119 0.0 0.0 0.00 0.00 0.00 91 1014.1
20260505073127 50 119 0.0 0.9 0.00 0.00 0.00 91 1014.2
20260505073116 49 119 0.0 0.0 0.00 0.00 0.00 91 1014.1
20260505073059 50 120 0.0 0.0 0.00 0.00 0.00 91 1014.1
20260505072944 50 120 0.0 0.0 0.00 0.00 0.00 91 1014.1
20260505072939 50 119 0.0 0.9 0.00 0.00 0.00 91 1014.2
20260505072928 50 119 0.0 0.0 0.00 0.00 0.00 91 1014.2
20260505072555 50 119 0.0 0.9 0.00 0.00 0.00 91 1014.3
20260505072441 50 120 0.0 0.9 0.00 0.00 0.00 91 1014.3
20260505072355 50 120 0.0 0.9 0.00 0.00 0.00 91 1014.3
20260505072256 50 120 0.0 0.9 0.00 0.00 0.00 91 1014.3
20260505072155 50 119 0.0 0.9 0.00 0.00 0.00 91 1014.3
20260505072055 50 120 0.0 0.9 0.00 0.00 0.00 91 1014.3
20260505071955 50 119 0.0 0.9 0.00 0.00 0.00 91 1014.3
20260505071940 50 120 0.0 0.9 0.00 0.00 0.00 91 1014.3
20260505071854 50 120 0.0 0.9 0.00 0.00 0.00 91 1014.3
20260505071753 50 119 0.0 0.0 0.00 0.00 0.00 91 1014.3
20260505071650 50 119 0.0 0.0 0.00 0.00 0.00 91 1014.3
20260505071550 50 157 0.0 0.0 0.00 0.00 0.00 91 1014.3
20260505071452 50 156 0.0 0.0 0.00 0.00 0.00 91 1014.3
20260505071442 50 157 0.0 0.0 0.00 0.00 0.00 91 1014.3
20260505071350 50 157 0.0 0.0 0.00 0.00 0.00 91 1014.3
20260505071249 50 157 0.0 0.0 0.00 0.00 0.00 91 1014.2
20260505071148 50 157 0.0 0.0 0.00 0.00 0.00 91 1014.3
20260505071048 50 157 0.0 0.0 0.00 0.00 0.00 91 1014.2
20260505070949 50 156 0.0 0.0 0.00 0.00 0.00 91 1014.2
20260505070940 50 157 0.0 0.0 0.00 0.00 0.00 91 1014.2
20260505070845 50 157 0.0 0.0 0.00 0.00 0.00 91 1014.3
20260505070745 50 157 0.0 0.0 0.00 0.00 0.00 91 1014.3
20260505070642 50 157 0.0 0.0 0.00 0.00 0.00 91 1014.3
20260505070544 50 157 0.0 0.0 0.00 0.00 0.00 91 1014.3
20260505070442 50 157 0.0 0.0 0.00 0.00 0.00 91 1014.3
20260505070341 50 157 0.0 0.0 0.00 0.00 0.00 91 1014.3
20260505070241 50 157 0.0 0.0 0.00 0.00 0.00 91 1014.3
20260505070139 50 157 0.0 0.0 0.00 0.00 0.00 91 1014.3
20260505070038 50 157 0.0 0.0 0.00 0.00 0.00 91 1014.3
20260505070010 50 157 0.0 0.0 0.00 0.00 0.00 91 1014.3
20260505065954 50 157 0.0 0.0 0.00 0.00 0.00 91 1014.3
20260505065737 50 157 0.0 0.0 0.00 0.00 0.00 90 1014.3
20260505065637 50 157 0.0 0.0 0.00 0.00 0.00 90 1014.3
20260505065534 50 157 0.0 0.0 0.00 0.00 0.00 90 1014.3
20260505065435 50 157 0.0 0.0 0.00 0.00 0.00 90 1014.3
20260505065332 50 157 0.0 0.0 0.00 0.00 0.00 90 1014.3
20260505065232 50 157 0.0 0.0 0.00 0.00 0.00 90 1014.3
20260505065131 50 157 0.0 0.0 0.00 0.00 0.00 90 1014.3
20260505065030 50 157 0.0 0.0 0.00 0.00 0.00 90 1014.2
20260505064930 50 157 0.0 0.0 0.00 0.00 0.00 90 1014.3
20260505064830 50 157 0.0 0.0 0.00 0.00 0.00 90 1014.3
20260505064753 50 157 0.0 0.0 0.00 0.00 0.00 90 1014.3
20260505064746 50 157 0.0 0.0 0.00 0.00 0.00 90 1014.3
20260505064527 50 157 0.0 0.0 0.00 0.00 0.00 90 1014.2
20260505064427 50 157 0.0 0.0 0.00 0.00 0.00 90 1014.2
20260505064326 50 157 0.0 0.0 0.00 0.00 0.00 90 1014.2
20260505064254 51 157 0.0 0.0 0.00 0.00 0.00 90 1014.2
20260505064245 51 157 0.0 0.0 0.00 0.00 0.00 90 1014.2
20260505064024 51 157 0.0 0.0 0.00 0.00 0.00 90 1014.3
20260505063925 51 157 0.0 0.0 0.00 0.00 0.00 90 1014.2
20260505063825 51 157 0.0 0.0 0.00 0.00 0.00 90 1014.3
20260505063725 51 157 0.0 0.0 0.00 0.00 0.00 90 1014.2
20260505063651 51 157 0.0 0.0 0.00 0.00 0.00 90 1014.2
20260505063642 51 157 0.0 0.0 0.00 0.00 0.00 90 1014.2
20260505063440 51 157 0.0 0.0 0.00 0.00 0.00 90 1014.2
20260505063426 51 157 0.0 0.0 0.00 0.00 0.00 90 1014.3
20260505063349 51 157 0.0 0.0 0.00 0.00 0.00 90 1014.3
20260505063341 51 157 0.0 0.0 0.00 0.00 0.00 90 1014.3
20260505063125 51 157 0.0 0.0 0.00 0.00 0.00 90 1014.3
20260505063025 51 157 0.0 0.0 0.00 0.00 0.00 90 1014.2
20260505062924 51 157 0.0 0.0 0.00 0.00 0.00 90 1014.2
20260505062823 51 157 0.0 0.0 0.00 0.00 0.00 90 1014.2
20260505062722 51 157 0.0 0.0 0.00 0.00 0.00 90 1014.2
20260505062623 51 157 0.0 0.0 0.00 0.00 0.00 90 1014.3
20260505062523 51 157 0.0 0.0 0.00 0.00 0.00 89 1014.3
20260505062423 51 157 0.0 0.0 0.00 0.00 0.00 89 1014.3
20260505062323 51 157 0.0 0.0 0.00 0.00 0.00 89 1014.3
20260505062224 51 157 0.0 0.0 0.00 0.00 0.00 89 1014.3
20260505062148 51 157 0.0 0.0 0.00 0.00 0.00 89 1014.4
20260505062139 51 157 0.0 0.0 0.00 0.00 0.00 89 1014.3
20260505061922 51 157 0.0 0.0 0.00 0.00 0.00 89 1014.4
20260505061819 51 157 0.0 0.0 0.00 0.00 0.00 89 1014.4
20260505061719 51 157 0.0 0.0 0.00 0.00 0.00 89 1014.4
20260505061619 51 157 0.0 0.0 0.00 0.00 0.00 89 1014.4
20260505061519 51 157 0.0 0.0 0.00 0.00 0.00 89 1014.3
20260505061417 51 157 0.0 0.0 0.00 0.00 0.00 89 1014.3
20260505061405 51 158 0.0 0.0 0.00 0.00 0.00 88 1014.3
20260505061401 51 157 0.0 0.0 0.00 0.00 0.00 88 1014.3
20260505061349 51 157 0.0 0.0 0.00 0.00 0.00 89 1014.3
20260505061016 51 157 0.0 0.0 0.00 0.00 0.00 88 1014.3
20260505060947 51 157 0.0 0.0 0.00 0.00 0.00 88 1014.4
20260505060942 51 157 0.0 0.0 0.00 0.00 0.00 88 1014.4
20260505060937 51 157 0.0 0.0 0.00 0.00 0.00 88 1014.3
20260505060928 51 157 0.0 0.0 0.00 0.00 0.00 88 1014.4
20260505060711 51 157 0.0 0.0 0.00 0.00 0.00 88 1014.4
20260505060610 51 157 0.0 0.0 0.00 0.00 0.00 88 1014.4
20260505060550 51 157 0.0 0.0 0.00 0.00 0.00 88 1014.4
20260505060430 51 157 0.0 0.0 0.00 0.00 0.00 88 1014.4
20260505060423 51 157 0.0 0.0 0.00 0.00 0.00 88 1014.4
20260505060206 51 157 0.0 0.0 0.00 0.00 0.00 88 1014.4
20260505060107 51 159 0.0 0.0 0.00 0.00 0.00 88 1014.4
20260505060055 52 157 0.0 0.0 0.00 0.00 0.00 87 1014.4
20260505060042 51 157 0.0 0.0 0.00 0.00 0.00 88 1014.4
20260505060030 52 157 0.0 0.0 0.00 0.00 0.00 87 1014.4
20260505055704 52 157 0.0 0.0 0.00 0.00 0.00 87 1014.4
20260505055604 52 157 0.0 0.0 0.00 0.00 0.00 87 1014.4
20260505055501 52 157 0.0 0.0 0.00 0.00 0.00 87 1014.4
20260505055437 52 159 0.0 0.0 0.00 0.00 0.00 87 1014.4
20260505055401 52 158 0.0 0.0 0.00 0.00 0.00 87 1014.4
20260505055325 52 157 0.0 0.0 0.00 0.00 0.00 87 1014.4
20260505055316 52 157 0.0 0.0 0.00 0.00 0.00 87 1014.4
20260505055059 52 157 0.0 0.0 0.00 0.00 0.00 87 1014.4
20260505054957 52 159 0.0 0.0 0.00 0.00 0.00 87 1014.4
20260505054936 52 157 0.0 0.0 0.00 0.00 0.00 87 1014.4
20260505054921 52 159 0.0 0.0 0.00 0.00 0.00 87 1014.5
20260505054913 52 157 0.0 0.0 0.00 0.00 0.00 87 1014.4
20260505054654 52 157 0.0 0.0 0.00 0.00 0.00 87 1014.5
20260505054556 52 157 0.0 0.0 0.00 0.00 0.00 87 1014.4
20260505054454 52 157 0.0 0.0 0.00 0.00 0.00 87 1014.5
20260505054437 52 159 0.0 0.0 0.00 0.00 0.00 87 1014.5
20260505054354 52 157 0.0 0.0 0.00 0.00 0.00 87 1014.5
20260505054252 52 157 0.0 0.0 0.00 0.00 0.00 86 1014.4
20260505054150 52 157 0.0 0.0 0.00 0.00 0.00 86 1014.5
20260505054049 52 158 0.0 0.0 0.00 0.00 0.00 86 1014.5
20260505054022 52 157 0.0 0.0 0.00 0.00 0.00 86 1014.5
20260505054011 52 159 0.0 0.0 0.00 0.00 0.00 86 1014.5
20260505054001 52 157 0.0 0.0 0.00 0.00 0.00 86 1014.5
20260505053746 52 157 0.0 0.0 0.00 0.00 0.00 86 1014.6
20260505053646 53 157 0.0 0.0 0.00 0.00 0.00 85 1014.5
20260505053547 53 157 0.0 0.0 0.00 0.00 0.00 85 1014.5
20260505053501 53 157 0.0 0.0 0.00 0.00 0.00 84 1014.5
20260505053453 53 157 0.0 0.0 0.00 0.00 0.00 85 1014.6
20260505053448 53 159 0.0 0.0 0.00 0.00 0.00 85 1014.5
20260505053439 53 157 0.0 0.0 0.00 0.00 0.00 85 1014.5
20260505053426 53 157 0.0 0.0 0.00 0.00 0.00 85 1014.6
20260505053148 53 157 0.0 0.0 0.00 0.00 0.00 84 1014.5
20260505053129 53 157 0.0 0.0 0.00 0.00 0.00 84 1014.5
20260505053007 53 159 0.0 0.0 0.00 0.00 0.00 84 1014.5
20260505052958 53 157 0.0 0.0 0.00 0.00 0.00 84 1014.5
20260505052807 53 157 0.0 0.0 0.00 0.00 0.00 84 1014.5
20260505052759 53 157 0.0 0.0 0.00 0.00 0.00 84 1014.5
20260505052543 53 157 0.0 0.0 0.00 0.00 0.00 84 1014.6
20260505052512 53 157 0.0 0.0 0.00 0.00 0.00 84 1014.6
20260505052501 53 158 0.0 0.0 0.00 0.00 0.00 84 1014.6
20260505052452 53 157 0.0 0.0 0.00 0.00 0.00 84 1014.6
20260505052240 53 159 0.0 0.0 0.00 0.00 0.00 84 1014.6
20260505052139 53 159 0.0 0.0 0.00 0.00 0.00 84 1014.6
20260505052038 53 157 0.0 0.0 0.00 0.00 0.00 84 1014.6
20260505052007 53 157 0.0 0.0 0.00 0.00 0.00 84 1014.5
20260505051952 53 159 0.0 0.0 0.00 0.00 0.00 84 1014.5
20260505051735 53 157 0.0 0.0 0.00 0.00 0.00 84 1014.5
20260505051635 53 157 0.0 0.0 0.00 0.00 0.00 84 1014.5
20260505051605 53 157 0.0 0.0 0.00 0.00 0.00 83 1014.5
20260505051555 53 157 0.0 0.0 0.00 0.00 0.00 83 1014.5
20260505051537 53 159 0.0 0.0 0.00 0.00 0.00 83 1014.5
20260505051332 53 157 0.0 0.0 0.00 0.00 0.00 83 1014.5
20260505051231 53 159 0.0 0.0 0.00 0.00 0.00 83 1014.5
20260505051133 54 157 0.0 0.0 0.00 0.00 0.00 83 1014.5
20260505051103 54 157 0.0 0.0 0.00 0.00 0.00 82 1014.5
20260505051051 54 159 0.0 0.0 0.00 0.00 0.00 82 1014.5
20260505051035 54 159 0.0 0.0 0.00 0.00 0.00 82 1014.5
20260505050828 54 157 0.0 0.0 0.00 0.00 0.00 82 1014.5
20260505050756 54 159 0.0 0.0 0.00 0.00 0.00 82 1014.5
20260505050748 54 159 0.0 0.0 0.00 0.00 0.00 82 1014.5
20260505050602 54 157 0.0 0.0 0.00 0.00 0.00 82 1014.5
20260505050551 54 157 0.0 0.0 0.00 0.00 0.00 82 1014.5
20260505050534 54 157 0.0 0.0 0.00 0.00 0.00 81 1014.5
20260505050329 54 158 0.0 0.0 0.00 0.00 0.00 82 1014.5
20260505050227 54 159 0.0 0.0 0.00 0.00 0.00 81 1014.5
20260505050154 54 159 0.0 0.0 0.00 0.00 0.00 82 1014.5
20260505050142 54 157 0.0 0.0 0.00 0.00 0.00 82 1014.5